[{"header": {"dx": 0.06612293990616946, "dy": 0.0552356325346848, "nx": 98, "ny": 59, "la1": 35.046912555036876, "la2": 31.78801023549047, "lo1": -121.43107172385933, "lo2": -114.95102361305473, "refTime": "2026041604", "parameterCategory": 1, "parameterNumber": 2}, "data": [11.0, 10.73, 10.73, 11.02, 10.74, 10.76, 10.47, 10.47, 9.84, 9.5, 8.56, 6.97, 5.43, 2.23, 1.6, 1.2, 0.89, 0.89, 0.45, 0.45, 0.89, 1.79, 2.24, 2.24, 2.68, 3.13, 2.12, 0.71, 0.0, 0.0, 0.0, 0.0, 0.65, 0.65, 1.2, 1.88, 2.21, 2.5, 2.21, 1.4, 1.13, 2.2, 3.97, 6.64, 9.53, 12.52, 15.12, 10.15, 2.8, 3.11, 5.3, 6.32, 7.02, 6.95, 7.97, 8.65, 9.56, 10.28, 10.48, 10.8, 10.8, 10.15, 9.74, 9.2, 9.2, 9.74, 10.68, 10.68, 10.27, 9.6, 8.24, 8.05, 8.95, 9.49, 9.83, 10.01, 10.25, 10.8, 12.3, 9.81, 2.8, -0.0, -0.57, -0.0, 0.89, 2.6, 4.66, 4.66, 2.63, 1.16, 0.59, 0.61, 0.61, 1.16, 1.84, 2.07, 1.8, 2.0, 10.73, 10.73, 10.73, 11.02, 10.74, 10.76, 10.47, 10.47, 10.13, 9.82, 8.58, 7.08, 5.06, 2.86, 4.4, 3.39, 1.34, 0.89, 0.89, 0.0, 0.0, 0.6, 2.12, 2.24, 2.24, 3.13, 2.54, 0.57, 0.0, -0.76, -0.53, 0.0, 0.0, 0.54, 1.2, 2.21, 2.53, 3.45, 3.45, 2.53, 2.07, 3.0, 5.72, 7.73, 10.75, 13.49, 9.84, 2.6, 2.11, 3.9, 5.69, 6.01, 7.02, 7.31, 7.96, 8.68, 9.67, 10.48, 10.8, 10.8, 11.09, 10.15, 9.2, 9.49, 9.08, 9.6, 10.01, 10.01, 9.74, 9.2, 9.03, 8.24, 9.08, 10.01, 10.01, 10.01, 10.01, 10.8, 12.3, 9.81, 2.8, -0.0, -0.57, -0.0, 0.89, 2.6, 4.66, 4.66, 2.63, 1.16, 0.59, 0.61, 0.61, 1.16, 1.84, 2.07, 1.8, 2.0, 10.34, 10.73, 10.73, 10.73, 11.02, 10.74, 10.47, 10.77, 10.45, 9.84, 8.59, 6.98, 5.37, 3.84, 2.8, 2.54, 1.79, 1.2, 0.6, 0.0, 0.0, 0.0, 0.85, 1.49, 2.23, 2.6, 2.6, 1.26, 0.0, -1.33, -1.33, -0.61, 0.0, 0.0, 1.2, 2.21, 3.45, 4.46, 4.46, 4.46, 5.0, 5.7, 7.63, 8.56, 9.48, 7.69, 3.51, 3.22, 4.36, 4.65, 5.37, 6.01, 6.01, 6.68, 7.33, 8.3, 9.27, 10.55, 10.68, 10.95, 10.52, 9.49, 9.08, 9.08, 9.08, 9.49, 10.01, 9.6, 9.6, 9.27, 9.27, 10.15, 10.52, 10.52, 10.25, 10.25, 10.93, 12.14, 12.81, 10.25, 2.8, -0.0, -0.0, 0.6, 1.79, 3.07, 4.52, 2.68, 0.54, -0.0, -0.0, 0.53, 0.53, 0.65, 0.61, 0.66, 1.35, 2.11, 10.34, 10.34, 10.73, 10.73, 10.74, 10.74, 10.76, 10.76, 10.47, 9.84, 8.59, 7.33, 5.76, 3.48, 2.4, 2.6, 2.6, 2.12, 0.6, 0.0, 0.0, 0.0, 0.0, 0.0, 0.65, 1.58, 1.86, 1.58, 0.0, -1.49, -2.11, -1.47, -1.41, 0.0, 0.65, 2.53, 3.48, 5.24, 6.01, 6.24, 7.18, 7.52, 6.95, 6.08, 5.16, 4.85, 4.81, 5.43, 5.06, 5.37, 5.37, 6.06, 6.06, 6.39, 6.7, 7.67, 8.8, 10.01, 10.52, 10.01, 9.6, 9.08, 9.08, 9.08, 9.49, 9.49, 9.2, 9.14, 9.19, 9.78, 10.28, 10.8, 11.62, 11.52, 10.96, 10.25, 10.28, 12.52, 14.29, 10.73, 2.63, -0.0, 0.71, 1.26, 2.24, 3.51, 3.07, 0.6, -0.65, -0.0, -0.0, -0.0, -0.0, -0.0, -0.0, -0.0, 0.69, 2.2, 10.34, 10.34, 10.34, 10.73, 10.74, 10.74, 10.74, 10.76, 10.47, 9.84, 8.59, 6.96, 5.49, 3.07, 2.86, 3.22, 2.8, 2.12, 1.26, 0.0, 0.0, 0.0, 0.0, 0.0, 0.0, 0.0, 0.71, 0.0, 0.0, -0.7, -1.55, -2.2, -2.4, -1.49, 1.07, 3.17, 3.99, 5.72, 6.79, 6.14, 5.69, 4.8, 4.02, 4.87, 5.64, 5.6, 5.46, 5.43, 5.37, 5.37, 5.43, 5.77, 5.43, 5.77, 6.7, 8.0, 8.55, 9.08, 10.01, 10.01, 9.33, 8.95, 9.08, 9.08, 9.49, 8.8, 8.24, 7.68, 8.6, 10.28, 11.53, 12.47, 12.39, 12.29, 11.66, 9.81, 8.82, 10.49, 12.05, 10.73, 2.6, 0.6, 1.2, 1.79, 2.68, 3.07, 0.89, -0.6, -1.24, -0.53, -0.66, -0.0, -0.0, -0.0, -0.72, -0.0, 1.55, 2.2, 10.08, 10.34, 10.34, 10.08, 10.74, 10.74, 10.74, 10.76, 10.47, 9.84, 8.59, 6.7, 4.71, 4.11, 3.22, 2.86, 2.21, 2.53, 2.41, 1.55, 0.0, -0.78, -1.08, -0.71, 0.0, 0.0, 0.0, 0.0, 0.0, 0.0, 0.0, -0.7, -0.72, 0.0, 1.43, 2.11, 3.06, 5.64, 5.49, 2.41, 1.49, 2.24, 3.97, 6.66, 7.11, 6.0, 5.43, 5.77, 5.37, 5.43, 5.46, 4.81, 5.09, 5.46, 6.64, 7.89, 8.4, 8.91, 10.01, 10.52, 9.75, 8.91, 8.91, 9.08, 8.55, 8.05, 7.06, 7.35, 8.3, 10.29, 11.83, 12.39, 12.47, 13.35, 13.99, 12.74, 8.94, 6.36, 5.77, 7.6, 1.79, 1.2, 1.49, 1.86, 2.15, 1.26, -1.2, -2.24, -2.23, -2.15, -2.2, -0.67, -0.0, -0.67, -0.76, -0.0, 1.36, 2.8, 10.08, 10.08, 10.08, 10.08, 10.36, 10.74, 10.74, 10.47, 10.11, 9.49, 7.96, 5.69, 4.83, 4.19, 5.75, 2.86, 3.16, 4.11, 4.01, 3.11, 1.41, 0.0, -1.49, -1.58, 0.0, 0.0, -1.05, -1.05, -2.09, -1.6, -0.85, -0.54, 0.0, 1.6, 2.23, 2.23, 3.06, 4.46, 2.84, 1.2, 0.89, 1.79, 2.68, 3.58, 4.82, 5.09, 5.69, 6.39, 6.06, 6.7, 6.32, 4.46, 5.09, 5.69, 6.94, 7.89, 8.4, 8.63, 9.54, 10.25, 10.02, 9.11, 8.63, 7.47, 6.44, 7.02, 8.03, 7.69, 8.63, 10.43, 11.45, 10.75, 10.8, 12.58, 14.11, 14.11, 11.98, 6.26, 3.13, 4.02, 2.68, 1.2, 1.16, 1.33, 1.88, 0.0, -2.12, -2.68, -2.15, -2.07, -1.94, -1.3, -0.69, -0.73, -0.0, 0.74, 2.2, 2.88, 9.67, 10.08, 10.08, 10.08, 10.36, 10.74, 10.47, 10.39, 10.11, 9.21, 7.59, 5.26, 4.26, 4.11, 6.7, 4.46, 4.46, 4.74, 4.11, 3.07, 3.22, 2.91, 1.88, 0.72, 0.0, 0.0, -1.14, -2.98, -3.99, -3.2, -1.98, -1.03, 0.0, 2.33, 2.9, 2.12, 1.41, 1.49, 1.58, 0.95, 0.45, 0.45, 0.89, 1.34, 1.58, 1.98, 4.43, 6.08, 6.44, 6.7, 4.84, 5.21, 6.07, 6.8, 6.94, 7.71, 8.14, 8.36, 9.26, 9.72, 9.26, 8.36, 6.28, 4.81, 4.95, 6.32, 9.27, 9.08, 8.8, 9.83, 10.28, 9.83, 9.83, 11.15, 12.05, 12.07, 12.42, 9.58, 7.71, 8.46, 7.6, 2.07, 0.63, 1.94, 2.23, 1.7, 0.45, -0.0, -0.0, -0.66, -1.41, -1.45, -1.49, -0.71, -0.0, 1.45, 2.04, 2.88, 9.67, 9.67, 10.08, 10.08, 10.36, 10.36, 10.1, 10.11, 9.84, 8.83, 7.57, 5.86, 4.36, 4.71, 4.96, 4.95, 4.95, 4.95, 3.35, 1.49, 2.0, 4.47, 6.65, 4.8, 2.3, 0.87, 0.0, -1.6, -4.46, -3.35, -1.04, 0.0, 0.0, 1.04, 0.0, 0.0, 0.0, 0.0, 0.0, 0.0, 0.0, 0.45, 0.45, 0.45, 0.95, 1.7, 2.0, 4.0, 5.46, 6.07, 7.37, 5.46, 6.07, 6.4, 6.79, 6.98, 7.56, 8.01, 8.49, 8.49, 7.6, 5.31, 3.58, 3.22, 4.65, 7.44, 10.01, 10.02, 8.46, 8.63, 8.63, 8.71, 9.54, 10.05, 10.08, 9.81, 8.94, 9.36, 10.26, 11.6, 11.15, 3.14, 1.41, 1.94, 3.72, 4.02, 3.53, 3.07, 2.5, -0.0, -0.69, -1.28, -2.0, -0.76, -0.0, 1.36, 2.11, 1.94, 9.42, 9.42, 9.42, 10.08, 10.36, 10.1, 10.1, 10.11, 9.47, 8.18, 7.55, 7.13, 6.5, 5.8, 4.93, 4.87, 5.72, 4.75, 3.21, 2.23, 2.13, 3.3, 5.46, 5.44, 4.19, 1.83, 0.65, 0.0, -1.99, -2.17, 0.0, 0.0, 0.0, -1.49, -2.21, -1.24, 0.0, 0.0, 0.0, 0.89, 1.34, 0.8, 0.89, 0.89, 1.34, 1.79, 1.79, 2.24, 3.74, 5.43, 5.82, 6.08, 6.07, 6.0, 6.07, 6.21, 6.26, 6.71, 6.71, 6.26, 4.47, 2.6, 3.22, 3.33, 5.37, 6.64, 8.4, 8.24, 6.22, 5.69, 6.08, 6.9, 7.73, 8.06, 8.67, 8.24, 7.71, 7.28, 8.38, 10.26, 10.7, 8.71, 2.5, 3.07, 4.87, 5.32, 5.64, 4.73, 2.86, 0.59, -0.63, -1.3, -1.41, -0.72, -0.0, 1.35, 2.0, 2.0, 9.42, 9.42, 9.42, 10.1, 10.1, 10.1, 10.1, 10.11, 8.81, 8.18, 7.53, 8.18, 8.18, 7.53, 5.8, 5.38, 5.91, 5.21, 4.01, 3.44, 3.07, 2.44, 3.2, 3.23, 3.08, 1.03, 0.0, 0.0, 0.0, 0.0, 0.0, -0.6, -0.89, -1.34, -1.7, -1.58, 0.0, 0.0, 0.63, 1.79, 2.12, 1.7, 1.2, 3.13, 3.13, 1.79, 1.79, 2.12, 2.6, 3.16, 3.72, 4.65, 5.06, 4.81, 4.46, 4.4, 4.4, 4.41, 3.13, 1.79, 1.24, 2.4, 3.4, 3.91, 4.83, 5.38, 5.49, 4.74, 2.6, 2.6, 2.86, 4.66, 5.6, 5.94, 6.85, 7.76, 7.06, 5.34, 4.24, 4.02, 5.16, 6.32, 6.96, 4.43, 5.2, 6.36, 7.06, 5.6, 3.49, 1.16, -0.0, -0.59, -1.27, -0.63, -0.0, 1.27, 1.27, 1.27, 9.42, 9.7, 9.7, 9.7, 10.1, 10.1, 10.1, 9.47, 8.81, 8.18, 8.18, 8.16, 8.81, 8.85, 7.96, 7.59, 6.31, 5.0, 4.51, 4.65, 4.02, 3.42, 2.28, 2.04, 1.1, 0.0, -1.13, -1.2, -0.89, -1.34, -1.2, -1.34, -1.79, -1.7, -1.27, -1.34, -0.63, 0.0, 0.45, 1.2, 1.86, 1.86, 1.58, 3.39, 2.68, 0.89, 1.2, 1.58, 0.99, 0.99, 1.49, 2.2, 3.22, 3.22, 3.22, 4.01, 3.9, 3.84, 1.2, -0.0, 0.74, 2.97, 3.11, 2.47, 2.25, 2.31, 3.04, 2.39, 2.2, 2.0, 2.84, 3.82, 3.58, 3.51, 4.73, 6.55, 4.73, 2.24, 1.79, 2.12, 2.5, 4.46, 6.7, 7.03, 6.52, 7.85, 8.4, 7.33, 4.73, 2.23, 1.2, -0.0, -0.59, -0.66, -0.0, 0.61, 0.61, 0.66, 9.17, 9.45, 9.7, 9.7, 10.1, 10.1, 9.83, 9.47, 8.56, 8.18, 8.18, 8.56, 8.81, 9.21, 9.5, 9.19, 6.97, 5.1, 4.75, 5.1, 6.28, 6.95, 6.8, 6.04, 5.79, 4.89, 3.58, 1.34, -0.63, -2.63, -2.24, -1.79, -1.79, -1.7, -1.2, -0.63, -0.63, -0.0, -0.0, 0.6, 1.26, 1.49, 1.86, 1.79, 0.89, 0.45, -0.0, -0.0, 0.8, 0.8, -0.0, 0.6, 0.6, 0.8, 1.0, 1.58, 2.84, 3.93, 1.79, -0.57, -0.77, 1.56, 2.41, 1.52, -0.0, -0.0, 0.73, 1.52, 2.28, 3.95, 5.28, 3.64, 2.4, 2.68, 3.97, 4.41, 2.68, 1.58, 2.53, 3.84, 3.84, 3.83, 6.85, 7.21, 7.07, 8.3, 9.74, 8.4, 5.72, 4.07, 3.43, 1.16, -0.0, -0.0, -0.0, 0.53, -0.0, 0.66, 9.04, 9.45, 9.45, 9.7, 9.7, 10.1, 9.73, 9.47, 8.56, 8.43, 8.43, 8.83, 8.83, 9.48, 9.84, 9.21, 7.9, 6.28, 5.35, 5.93, 7.23, 8.51, 9.43, 10.04, 10.22, 9.77, 8.87, 6.16, 1.7, -0.89, -2.68, -1.34, -3.13, -0.89, -0.63, -0.6, -0.0, -0.0, 0.6, 0.63, 1.34, 1.34, 1.34, 3.13, 2.24, 1.34, -0.0, -0.0, 0.45, 0.0, 0.0, 0.0, 0.0, 0.45, 0.0, 0.0, 0.45, 2.24, 3.04, -0.0, -2.31, -0.0, 1.14, -0.0, -0.0, -0.74, -1.4, -0.0, 2.09, 4.56, 4.46, 1.49, -0.0, 0.89, 2.24, 2.24, 1.9, 3.48, 4.46, 5.69, 6.0, 6.51, 7.12, 7.15, 6.36, 8.4, 10.01, 9.2, 6.35, 5.0, 5.0, 2.48, 1.49, 0.61, 0.61, 0.65, -0.0, 0.59, 9.04, 9.45, 9.45, 9.45, 9.45, 9.45, 9.73, 9.2, 8.56, 8.83, 8.83, 8.83, 8.83, 9.21, 9.49, 9.21, 8.56, 7.59, 6.59, 6.52, 7.72, 8.82, 10.0, 11.12, 11.39, 11.28, 10.94, 9.23, 5.57, 1.49, 0.0, 0.45, -0.0, -0.0, -0.0, -0.0, -0.0, -0.0, 1.4, 1.2, 1.34, 3.13, 3.2, 2.8, 1.79, -0.0, -0.0, -0.0, -0.0, 0.0, 0.0, 0.6, 0.95, 0.45, 0.0, 0.0, 0.0, 2.15, 5.64, 1.74, -0.72, -1.05, -0.0, -0.0, -0.0, -0.0, -0.99, -0.0, 1.2, 1.98, -0.0, -0.61, -1.24, -0.0, 0.6, 2.21, 3.79, 5.43, 6.44, 7.03, 6.94, 6.98, 6.66, 5.36, 2.8, 5.36, 7.56, 7.2, 5.69, 5.21, 5.94, 4.71, 2.2, 1.41, 1.55, 0.61, 0.59, 0.59, 9.04, 9.04, 9.45, 9.45, 9.45, 9.45, 9.47, 9.2, 9.09, 8.83, 8.83, 8.83, 8.83, 9.22, 9.21, 8.59, 8.87, 8.53, 8.19, 7.81, 7.73, 8.93, 10.02, 10.91, 11.62, 11.56, 11.4, 10.6, 9.23, 6.94, 4.34, 2.63, 1.79, 2.24, -0.0, -0.0, -0.0, 0.76, 2.84, 3.13, 1.79, 1.79, 3.58, 3.13, 2.4, -0.0, -0.0, -0.0, -0.0, -0.0, 1.79, 0.89, 1.34, 1.79, 1.79, 1.34, 1.58, 3.35, 4.92, 4.89, 1.55, -0.0, 1.41, 2.84, 1.6, 0.95, 0.0, 0.45, 0.57, -0.0, -2.15, -2.4, -1.26, -0.0, 1.49, 2.79, 5.59, 7.27, 7.68, 7.06, 6.7, 6.08, 5.34, 3.04, 1.2, 0.0, 2.6, 2.8, 3.72, 4.29, 6.32, 3.38, 1.94, 1.88, 2.8, 1.8, 1.13, 1.13, 9.04, 9.04, 9.45, 9.45, 9.45, 9.45, 9.47, 9.2, 9.09, 8.83, 8.83, 8.57, 8.85, 8.85, 8.59, 8.59, 8.87, 8.56, 8.82, 8.73, 8.55, 9.1, 9.88, 10.21, 11.24, 11.84, 11.95, 11.95, 11.12, 10.14, 8.33, 6.94, 4.8, 4.47, 1.26, 0.71, 0.71, 1.58, 2.12, 4.47, 4.02, 1.79, 3.58, 1.79, 2.8, -0.0, -0.0, -0.0, 1.4, 2.21, 3.2, 3.2, 3.82, 3.72, 4.77, 4.77, 5.36, 6.26, 6.79, 5.69, 4.75, 3.49, 2.48, 3.72, 4.77, 1.79, 0.89, 0.45, -0.0, -1.34, -2.6, -2.6, -1.34, 0.6, 1.9, 3.11, 5.28, 8.01, 8.46, 7.18, 5.86, 5.59, 5.09, 4.09, 2.6, 1.34, 0.63, 1.61, 3.35, 5.43, 6.35, 4.02, 1.94, 1.94, 2.88, 2.73, 1.8, 1.8, 9.04, 9.04, 9.04, 9.45, 9.45, 9.45, 9.47, 9.2, 9.48, 8.83, 8.83, 8.85, 8.58, 8.59, 8.59, 8.58, 9.19, 9.17, 9.42, 8.94, 9.48, 9.88, 9.71, 9.7, 11.04, 12.02, 12.39, 11.95, 11.49, 11.04, 10.04, 8.64, 6.94, 4.92, 3.39, 1.2, 1.2, 1.79, 2.68, 3.13, 2.6, 2.12, 2.24, 1.79, 2.8, 1.4, -0.0, 1.4, 2.53, 2.84, 3.72, 3.72, 4.09, 4.4, 4.8, 5.2, 5.4, 5.75, 5.59, 5.93, 5.59, 5.01, 4.4, 4.77, 5.36, 2.24, 1.34, 1.2, 0.71, 0.0, -0.85, -1.24, 0.89, 2.63, 2.5, 1.49, 4.03, 7.59, 8.93, 7.64, 6.06, 6.07, 6.0, 5.44, 4.4, 4.4, 2.53, 2.41, 2.86, 2.86, 4.74, 4.56, 2.88, 2.0, 2.73, 2.73, 2.66, 2.66, 8.79, 9.04, 9.04, 9.45, 9.19, 9.19, 9.47, 9.47, 9.48, 9.21, 9.12, 8.85, 8.86, 7.96, 7.96, 8.37, 8.24, 8.58, 8.82, 9.76, 10.68, 11.08, 10.02, 9.2, 9.08, 11.56, 10.34, 10.75, 10.75, 9.86, 9.7, 8.06, 6.16, 4.47, 3.09, 2.17, 2.24, 2.91, 3.04, 2.97, 3.04, 2.6, 2.12, 4.47, 3.39, 2.53, 2.53, 2.53, 2.53, 2.84, 3.35, 3.72, 4.09, 3.48, 3.49, 4.74, 4.43, 4.74, 5.59, 6.13, 5.75, 5.2, 4.8, 2.24, 2.24, 1.6, -0.0, 1.34, 3.74, 5.4, 5.73, 8.05, 10.96, 12.14, 9.33, 4.66, 3.13, 6.71, 8.8, 8.63, 7.11, 7.56, 7.15, 5.81, 4.87, 4.24, 3.82, 4.0, 3.2, 2.0, 2.15, 3.9, 3.64, 2.79, 2.07, 2.0, 2.79, 2.79, 8.79, 8.79, 8.79, 8.79, 8.79, 9.07, 9.07, 9.47, 9.2, 9.21, 9.22, 8.58, 8.22, 8.23, 8.23, 7.96, 7.96, 7.33, 7.08, 7.97, 10.9, 11.62, 10.87, 9.27, 9.0, 9.3, 9.65, 8.96, 9.2, 9.42, 8.3, 6.04, 4.02, 3.13, 2.6, 2.12, 1.79, 2.68, 3.53, 4.44, 5.33, 5.33, 5.33, 4.92, 4.44, 4.34, 3.35, 3.6, 3.2, 3.2, 3.35, 3.72, 3.48, 2.4, 1.4, 2.41, 5.37, 3.79, 3.84, 5.81, 5.4, 4.77, 4.34, 4.47, 1.2, -0.0, -0.65, -0.0, 3.2, 6.51, 9.54, 12.87, 16.33, 18.5, 16.97, 11.86, 7.69, 6.95, 8.4, 8.01, 8.94, 8.94, 8.05, 5.36, 3.58, 3.97, 4.0, 4.09, 3.32, 2.0, 1.49, 2.51, 3.48, 2.53, 1.61, 1.84, 2.51, 2.51, 8.79, 8.79, 8.79, 8.79, 9.07, 9.07, 8.81, 8.81, 9.2, 9.48, 9.22, 8.86, 8.22, 8.23, 8.23, 8.24, 7.61, 7.24, 6.97, 8.37, 10.12, 10.69, 10.69, 10.06, 10.01, 9.59, 9.1, 8.43, 8.68, 8.1, 6.6, 4.34, 3.13, 2.68, 3.07, 2.63, 2.6, 2.68, 3.13, 4.02, 4.92, 5.36, 5.36, 5.81, 4.92, 4.77, 3.82, 3.82, 3.39, 3.2, 3.2, 2.84, 2.48, 1.3, 2.16, 2.15, 3.22, 4.07, 5.24, 4.8, 4.24, 3.82, 3.58, 3.13, -0.0, -0.76, -0.65, -0.0, 2.4, 4.16, 6.95, 10.9, 14.42, 15.63, 15.47, 13.89, 7.85, 6.9, 7.08, 7.06, 8.19, 8.94, 8.01, 6.11, 5.31, 3.32, 3.14, 3.38, 4.02, 2.53, 1.9, 2.5, 3.07, 2.86, 1.61, 1.88, 2.53, 2.53, 8.79, 8.79, 9.07, 9.07, 8.81, 8.81, 8.81, 8.81, 9.2, 9.48, 9.22, 8.86, 8.22, 8.23, 8.23, 8.24, 7.61, 7.33, 8.23, 9.5, 10.12, 9.77, 9.17, 10.06, 10.59, 10.79, 10.55, 9.71, 9.63, 8.48, 6.47, 4.88, 4.02, 3.98, 4.43, 4.44, 4.47, 4.02, 3.58, 3.58, 4.02, 4.47, 4.92, 4.92, 4.92, 3.98, 4.34, 3.39, 3.2, 3.2, 2.53, 1.27, 1.08, 1.19, 1.3, 2.16, 2.11, 3.69, 5.69, 4.29, 1.2, 0.89, 0.63, -0.0, -0.0, -0.0, -0.88, -0.76, -0.0, -0.0, 3.2, 7.47, 7.92, 4.87, 6.32, 7.46, 7.69, 7.0, 6.4, 5.54, 6.06, 6.58, 7.15, 6.79, 6.28, 4.93, 3.48, 2.73, 4.11, 4.74, 3.07, 2.4, 2.4, 2.15, 1.9, 2.21, 2.86, 2.86, 8.81, 8.81, 8.81, 8.81, 8.81, 8.81, 8.81, 8.81, 9.09, 9.21, 9.22, 8.86, 8.59, 8.23, 7.96, 8.24, 7.96, 7.96, 8.87, 9.82, 10.36, 10.01, 9.37, 9.37, 9.94, 10.96, 10.83, 10.91, 10.42, 9.43, 7.87, 6.68, 6.26, 6.26, 5.81, 5.81, 5.81, 5.81, 4.92, 4.47, 4.02, 4.02, 4.02, 4.02, 4.02, 3.58, 4.02, 3.58, 3.13, 2.8, 2.53, 1.27, 1.41, 1.08, 1.19, 1.3, 0.7, 2.29, 4.22, 4.01, 1.58, 0.32, -0.0, -0.71, -0.79, -0.0, -0.0, -0.76, -0.71, -0.8, -0.0, 0.63, -0.8, -1.79, 0.0, 1.41, 3.61, 4.84, 5.71, 4.77, 4.2, 4.43, 4.73, 5.36, 5.77, 4.73, 3.49, 3.14, 4.0, 6.0, 4.66, 2.8, 2.4, 2.0, 1.9, 2.5, 3.39, 3.39, 8.4, 8.4, 8.81, 8.81, 8.81, 8.81, 8.83, 8.83, 8.83, 8.83, 8.85, 8.86, 8.59, 8.59, 8.24, 8.24, 8.24, 8.24, 8.58, 9.8, 10.65, 10.23, 9.86, 9.3, 9.86, 10.41, 11.22, 11.6, 11.12, 10.6, 9.57, 8.77, 8.03, 7.58, 7.6, 7.15, 7.15, 6.71, 6.71, 5.81, 4.92, 4.47, 4.02, 3.58, 3.13, 2.68, 3.58, 3.58, 2.8, 2.8, 2.53, 2.84, 1.27, 1.27, 1.08, -0.0, -0.0, -0.0, 1.8, 4.19, 3.16, 0.95, -0.0, -0.85, -0.7, -0.0, -0.0, -0.0, -0.0, -0.6, 0.0, 1.74, 0.8, 0.63, 1.58, 1.79, 1.9, 2.16, 4.4, 4.15, 4.05, 3.4, 4.11, 4.27, 4.24, 4.02, 3.97, 3.82, 3.07, 3.79, 6.07, 3.72, 2.86, 2.4, 2.4, 2.91, 3.53, 3.53, 8.4, 8.4, 8.81, 8.81, 8.81, 8.56, 8.83, 8.57, 8.57, 8.85, 8.85, 8.85, 8.86, 8.87, 8.23, 8.24, 8.24, 8.58, 8.87, 9.48, 10.06, 10.01, 9.94, 9.86, 10.3, 10.68, 10.83, 11.08, 10.91, 10.91, 10.18, 9.57, 9.23, 8.86, 8.42, 8.03, 8.03, 7.58, 7.58, 6.68, 6.23, 5.34, 4.92, 3.98, 3.53, 3.09, 3.09, 3.13, 3.09, 3.39, 3.07, 3.35, 2.53, 1.6, 1.13, -0.0, -0.0, -0.0, -0.0, 2.23, 4.0, 3.2, -0.0, -0.71, -0.79, -0.0, -0.0, -0.0, -0.0, 0.45, 2.21, 5.46, 7.52, 8.01, 8.91, 9.2, 8.49, 4.66, 4.29, 2.9, 3.46, 4.2, 4.14, 4.02, 3.79, 3.32, 3.58, 3.32, 2.15, 1.94, 3.79, 5.69, 5.36, 4.22, 2.91, 2.91, 3.07, 3.07, 8.16, 8.16, 8.16, 8.56, 8.83, 8.83, 8.83, 8.18, 8.2, 8.2, 8.58, 8.58, 8.86, 8.87, 8.59, 8.58, 8.58, 8.87, 8.87, 9.17, 9.72, 10.01, 10.01, 10.15, 10.41, 10.68, 10.55, 10.55, 10.4, 10.21, 10.18, 9.86, 9.54, 9.11, 8.77, 8.86, 8.42, 8.41, 7.97, 7.58, 7.13, 6.16, 5.78, 4.8, 4.34, 3.98, 4.02, 4.02, 3.98, 3.98, 3.53, 2.91, 3.2, 2.21, 1.4, 1.13, 1.4, -0.0, -0.0, 0.45, 2.68, 5.7, 3.2, -0.0, -0.0, -0.0, -0.0, -0.0, -0.0, -0.0, 1.2, 4.8, 8.46, 11.15, 11.87, 11.53, 11.09, 8.66, 3.13, 1.47, 2.21, 4.05, 4.2, 4.22, 3.43, 3.74, 3.58, 2.79, 1.8, 2.0, 2.79, 6.32, 6.96, 5.86, 4.0, 3.32, 3.32, 3.32, 8.16, 8.16, 8.43, 8.43, 8.43, 8.18, 8.18, 8.18, 8.2, 8.2, 8.2, 8.86, 8.86, 9.21, 8.87, 8.87, 8.58, 8.87, 8.87, 9.46, 9.46, 10.01, 10.01, 10.51, 10.41, 10.68, 10.55, 10.4, 10.62, 10.42, 9.51, 9.21, 8.96, 9.07, 8.64, 8.77, 8.33, 8.33, 8.41, 7.97, 7.51, 6.94, 6.61, 6.14, 5.26, 5.33, 4.92, 4.92, 4.47, 4.02, 3.58, 3.07, 2.63, 2.12, 0.95, 0.6, 1.2, -0.0, -0.6, -0.45, 1.34, 4.41, 4.98, 2.53, 1.3, 0.76, -0.0, -0.0, -0.0, 0.89, 2.12, 3.83, 6.7, 8.05, 8.55, 8.94, 8.67, 4.93, 2.24, 0.0, 0.76, 3.02, 4.12, 3.33, 3.32, 3.49, 3.13, 1.84, 2.0, 2.79, 3.14, 4.93, 8.0, 7.47, 5.72, 4.52, 3.6, 3.6, 8.43, 8.43, 8.43, 8.18, 8.18, 8.18, 8.46, 8.2, 8.2, 8.22, 8.22, 8.22, 8.86, 9.21, 9.21, 8.59, 8.58, 8.87, 8.87, 9.46, 9.13, 9.42, 9.66, 10.3, 10.51, 10.41, 10.68, 10.55, 10.4, 10.11, 9.51, 9.21, 8.96, 8.96, 8.64, 8.64, 8.77, 8.33, 8.33, 7.87, 7.87, 6.97, 6.61, 6.6, 6.23, 6.23, 6.26, 5.36, 4.92, 4.47, 4.02, 3.13, 2.68, 2.24, 1.34, 0.63, 1.58, -0.0, -0.6, -0.63, 0.45, 2.24, 4.41, 3.22, 2.15, 2.4, -0.0, -0.0, 0.63, 0.95, 2.12, 3.95, 5.34, 4.22, 3.51, 6.26, 6.26, 3.13, 1.2, 0.0, 0.0, 1.59, 2.71, 4.28, 4.22, 2.53, 1.2, 0.65, 2.53, 4.0, 3.82, 3.97, 7.71, 8.48, 7.56, 6.13, 4.66, 4.66, 8.18, 8.18, 8.18, 8.18, 8.18, 8.46, 8.2, 8.2, 8.2, 7.95, 8.22, 8.22, 8.59, 8.86, 9.5, 9.21, 8.87, 8.87, 9.17, 9.13, 9.13, 9.42, 9.66, 9.66, 9.94, 9.86, 10.13, 10.02, 10.4, 10.21, 9.92, 9.7, 9.39, 8.96, 9.11, 8.64, 8.64, 8.77, 8.33, 8.3, 7.87, 7.4, 6.47, 5.31, 4.47, 5.81, 6.26, 6.16, 5.7, 4.89, 3.98, 3.53, 3.07, 2.17, 1.2, 0.89, -0.0, -0.0, -0.0, -0.0, 0.45, 1.79, 2.68, 2.23, 1.9, 1.49, 1.6, 0.57, 0.0, 0.0, 1.2, 4.41, 6.66, 5.46, 5.38, 6.88, 5.72, 3.6, 3.07, 1.58, 0.0, 0.0, 1.65, 3.22, 3.48, 2.6, 0.95, 1.26, 3.07, 3.97, 3.53, 3.32, 4.73, 7.56, 8.06, 7.56, 5.72, 5.72, 8.18, 8.18, 8.18, 8.18, 8.46, 8.2, 8.2, 8.2, 7.95, 8.22, 8.22, 8.22, 8.22, 8.59, 8.87, 9.21, 9.19, 9.19, 9.17, 9.13, 9.13, 9.42, 9.42, 9.71, 9.37, 9.86, 9.5, 9.76, 9.63, 9.88, 9.71, 9.92, 9.7, 9.27, 9.39, 8.96, 8.96, 8.64, 8.64, 8.21, 7.74, 7.26, 6.94, 5.99, 5.24, 4.02, 5.77, 5.57, 4.6, 4.11, 3.6, 3.2, 2.91, 2.15, 1.6, 0.89, 0.6, 0.6, -0.0, 0.45, 0.45, 1.79, 2.12, 2.12, 1.86, 0.8, 0.65, 0.99, 0.95, 0.0, 0.71, 3.2, 7.15, 8.91, 9.3, 9.23, 7.97, 5.46, 4.73, 5.81, 4.41, 2.86, 2.6, 3.73, 4.8, 5.32, 4.52, 4.87, 4.47, 4.47, 3.51, 3.51, 5.64, 6.79, 8.24, 8.24, 7.28, 7.28, 8.18, 8.18, 8.18, 8.46, 8.2, 8.2, 8.2, 8.2, 7.95, 8.22, 8.22, 8.22, 7.96, 8.23, 8.87, 8.87, 9.5, 9.19, 9.17, 9.46, 9.13, 9.42, 9.42, 9.37, 9.37, 9.3, 8.94, 9.21, 9.35, 9.88, 9.88, 9.71, 9.92, 9.51, 9.7, 9.21, 9.21, 8.96, 8.48, 8.48, 8.17, 7.69, 6.79, 6.3, 5.31, 4.8, 5.34, 5.51, 4.11, 3.2, 3.07, 2.79, 2.53, 1.61, 1.26, 0.89, 1.2, 1.26, 0.95, 0.45, 0.89, 1.34, 1.6, 1.79, 1.34, 0.45, -0.0, -0.0, 1.6, 2.12, 1.58, 0.95, 3.13, 9.7, 12.05, 11.75, 10.9, 8.67, 6.54, 8.82, 10.7, 9.81, 6.17, 5.81, 6.97, 8.72, 9.7, 9.46, 8.01, 5.81, 4.47, 4.02, 4.02, 6.71, 8.38, 8.38, 7.48, 7.48, 8.18, 8.18, 8.2, 8.2, 8.2, 8.2, 8.2, 8.22, 8.22, 8.22, 8.22, 7.96, 7.96, 8.23, 8.23, 8.59, 9.19, 9.19, 9.48, 9.48, 9.17, 9.46, 9.42, 9.08, 9.02, 9.3, 8.94, 8.65, 8.67, 8.43, 9.35, 9.88, 9.71, 9.71, 9.71, 9.51, 9.42, 9.21, 8.72, 8.3, 8.0, 7.51, 7.01, 6.72, 6.1, 6.28, 6.51, 5.4, 4.11, 3.6, 3.07, 2.79, 2.79, 2.5, 2.12, 1.34, 1.6, 1.6, 1.6, 1.2, 0.63, 0.63, 1.7, 1.79, 0.89, 0.45, 0.45, 0.45, 1.2, 3.04, 2.17, -0.0, 0.45, 6.17, 13.39, 13.32, 9.27, 6.08, 5.82, 8.48, 11.99, 12.07, 10.65, 8.96, 10.18, 11.13, 12.04, 12.18, 11.06, 8.91, 6.71, 5.31, 3.97, 5.78, 8.02, 8.46, 8.46, 8.46, 8.2, 8.2, 8.2, 8.2, 8.2, 8.2, 8.22, 8.22, 8.22, 8.22, 7.96, 7.96, 7.85, 7.59, 7.96, 8.59, 8.87, 8.87, 9.19, 9.19, 9.48, 9.46, 9.42, 9.08, 9.02, 8.73, 8.73, 8.65, 8.37, 8.3, 8.27, 8.82, 9.35, 9.35, 9.35, 9.6, 9.2, 9.01, 8.91, 8.72, 8.22, 7.71, 7.51, 7.01, 6.51, 6.6, 6.6, 5.88, 4.9, 4.4, 3.88, 3.72, 3.35, 3.07, 2.6, 2.24, 2.12, 1.7, 1.6, 1.26, 1.26, 0.95, 2.8, 1.2, 0.89, 0.45, 0.45, 0.63, 1.26, 2.6, 2.68, 1.26, 0.89, 4.24, 12.87, 15.18, 7.45, 1.26, 2.24, 6.26, 10.28, 11.99, 12.35, 12.66, 12.31, 12.77, 13.3, 13.3, 12.87, 9.81, 8.05, 6.55, 5.86, 5.44, 7.48, 8.94, 8.49, 8.49, 7.8, 7.8, 8.2, 8.2, 7.95, 8.22, 8.22, 8.22, 8.22, 8.22, 7.96, 7.96, 7.85, 7.59, 7.96, 8.24, 8.24, 8.87, 9.19, 9.19, 9.48, 9.17, 9.13, 9.08, 8.78, 8.45, 8.73, 8.73, 8.73, 8.55, 8.27, 8.27, 8.43, 8.82, 8.96, 8.96, 9.2, 9.2, 8.91, 8.51, 8.0, 7.81, 7.31, 6.8, 7.01, 6.6, 6.51, 6.3, 5.81, 5.31, 4.8, 4.8, 4.27, 3.7, 3.09, 2.68, 2.24, 2.24, 1.7, 1.26, 1.2, 1.2, 1.4, 2.21, 0.95, 0.63, 0.45, 0.45, 0.95, 1.6, 2.24, 2.0, 2.68, 7.42, 12.56, 15.57, 12.49, 7.71, 7.47, 9.62, 12.05, 12.96, 13.86, 14.3, 14.3, 13.41, 13.41, 12.96, 12.52, 10.28, 8.05, 8.01, 6.85, 7.06, 7.06, 8.84, 8.05, 8.05, 7.55, 7.55, 7.55, 7.95, 8.22, 8.22, 8.22, 8.22, 8.22, 7.96, 7.96, 7.57, 7.85, 7.59, 7.59, 8.24, 8.24, 8.58, 8.87, 9.19, 9.48, 9.17, 9.13, 9.08, 9.02, 8.78, 8.73, 8.73, 8.73, 8.84, 8.55, 8.43, 8.43, 8.43, 8.82, 8.82, 8.82, 8.68, 8.68, 8.28, 8.4, 8.0, 7.71, 7.2, 6.8, 6.6, 6.51, 6.51, 6.0, 5.6, 5.08, 5.08, 4.8, 4.11, 3.39, 3.07, 2.68, 2.24, 1.79, 0.99, 0.71, 1.4, 1.4, 1.4, 1.4, 1.9, 0.63, 0.89, 0.89, 0.8, 1.34, 1.79, 5.36, 9.58, 12.14, 13.84, 13.96, 14.17, 14.68, 15.47, 14.75, 14.15, 13.7, 13.7, 14.23, 12.91, 12.5, 12.07, 10.28, 9.83, 8.01, 5.77, 7.71, 7.06, 5.64, 3.13, 3.97, 3.97, 7.55, 7.55, 7.55, 8.22, 8.22, 8.22, 8.22, 8.22, 7.96, 7.96, 7.96, 7.85, 7.59, 7.59, 7.59, 7.59, 8.24, 8.24, 8.58, 8.87, 8.87, 9.17, 9.13, 9.42, 9.37, 8.78, 8.73, 8.73, 8.65, 8.65, 8.93, 8.55, 8.82, 8.82, 8.43, 8.43, 8.43, 8.43, 8.68, 8.15, 8.15, 8.0, 7.48, 7.2, 7.01, 7.01, 6.8, 6.28, 5.89, 5.75, 5.47, 5.08, 4.8, 4.11, 3.82, 3.07, 2.63, 2.24, 1.79, 1.26, 1.24, 1.24, 1.9, 0.6, 1.2, 2.8, 1.34, 1.34, 0.89, 0.63, 1.34, 1.34, 4.92, 10.25, 12.07, 10.73, 11.6, 13.49, 15.34, 16.93, 16.09, 12.79, 10.6, 9.68, 9.93, 10.52, 10.18, 8.91, 8.01, 8.01, 7.12, 4.88, 6.21, 4.02, 1.26, 1.33, 1.84, 1.84, 7.57, 7.57, 7.57, 7.57, 7.96, 7.96, 7.96, 7.96, 7.96, 8.23, 8.23, 7.59, 7.59, 7.59, 7.87, 7.6, 7.96, 8.24, 8.54, 8.56, 8.56, 8.85, 8.85, 8.82, 9.08, 9.02, 9.3, 8.73, 8.73, 8.65, 8.65, 8.93, 8.55, 8.55, 8.82, 8.43, 8.43, 8.27, 7.9, 8.15, 8.15, 7.76, 6.95, 6.4, 6.51, 7.01, 6.8, 6.8, 6.28, 5.75, 5.21, 5.08, 4.8, 4.27, 3.6, 3.32, 3.07, 2.6, 1.2, 1.26, 0.99, 1.24, 1.9, 0.95, 1.2, 3.13, 1.34, 1.34, 1.34, 0.89, 0.63, 0.89, 2.54, 9.75, 12.3, 10.28, 7.89, 10.32, 14.11, 15.5, 14.69, 11.15, 7.92, 5.6, 5.2, 6.42, 7.92, 6.55, 5.78, 6.22, 5.36, 4.02, 1.86, -0.0, -0.0, 1.47, 3.55, 2.04, 7.16, 7.16, 7.57, 7.57, 7.96, 7.96, 7.96, 8.23, 8.23, 8.23, 7.96, 7.96, 7.87, 7.6, 7.6, 7.6, 7.96, 7.96, 8.24, 8.24, 8.56, 8.85, 8.53, 8.53, 8.82, 9.37, 9.02, 9.3, 8.73, 8.65, 8.65, 8.65, 8.93, 8.55, 8.55, 8.82, 8.43, 8.27, 7.9, 7.9, 7.61, 7.61, 6.7, 6.0, 6.1, 7.01, 7.48, 6.95, 6.41, 5.75, 5.21, 5.08, 4.8, 4.27, 3.6, 3.39, 2.91, 2.6, 1.2, 1.26, 1.26, 1.26, 1.9, 1.2, 1.34, 2.68, 2.68, 1.34, 1.34, 1.34, 0.89, 0.45, 1.34, 7.21, 13.23, 11.87, 6.07, 7.97, 12.01, 13.86, 12.49, 10.65, 9.36, 6.11, 4.0, 4.73, 5.32, 4.92, 4.47, 4.92, 4.47, 3.07, -0.0, -0.0, 0.7, 2.88, 4.02, 3.55, 6.92, 6.92, 7.32, 7.57, 7.57, 8.23, 8.23, 8.23, 8.23, 7.96, 7.96, 8.24, 7.6, 7.6, 7.6, 7.6, 7.96, 7.96, 8.24, 8.24, 7.95, 8.24, 8.53, 8.53, 8.82, 8.82, 9.02, 9.02, 9.3, 8.94, 8.65, 8.65, 8.93, 8.93, 8.55, 8.55, 8.43, 8.27, 7.9, 7.72, 7.35, 7.07, 6.7, 5.93, 6.4, 7.31, 7.61, 7.07, 6.15, 5.49, 5.21, 5.08, 4.55, 4.27, 4.11, 3.6, 3.07, 1.79, 1.2, 1.2, 1.26, 1.26, 1.26, 2.4, 2.4, 3.13, 1.34, 1.34, 1.34, 0.89, 0.63, 0.45, 0.89, 2.24, 9.4, 11.54, 9.27, 5.16, 7.35, 8.59, 8.93, 9.15, 9.81, 8.49, 5.36, 4.47, 5.36, 5.77, 4.73, 6.11, 4.24, 2.51, 1.35, 1.6, 2.98, 3.43, 4.11, 4.02, 6.92, 6.92, 7.19, 7.59, 7.59, 7.96, 8.23, 7.96, 7.96, 8.24, 8.24, 8.24, 7.96, 7.6, 7.6, 7.6, 7.96, 8.24, 7.95, 7.95, 8.24, 8.24, 8.24, 8.53, 8.5, 8.5, 8.5, 8.78, 9.02, 9.3, 8.94, 9.01, 8.65, 8.93, 8.55, 8.55, 8.55, 8.27, 7.9, 7.72, 7.35, 7.07, 6.51, 6.23, 6.57, 7.07, 7.07, 5.93, 5.29, 4.94, 5.21, 4.93, 4.55, 4.27, 3.88, 3.6, 3.2, 1.79, 1.34, 1.6, 1.6, 1.26, 1.9, 1.9, 2.8, 3.2, 1.79, 3.58, 0.89, 0.6, -0.0, 0.63, 0.95, 0.8, 2.24, 7.28, 10.29, 9.2, 4.02, 2.86, 2.86, 5.02, 7.57, 8.49, 7.57, 6.22, 4.87, 5.32, 6.55, 6.55, 4.73, 2.53, 1.84, 2.79, 3.84, 3.83, 4.15, 4.15, 6.94, 6.94, 7.19, 7.59, 7.59, 7.59, 7.96, 7.96, 8.24, 8.24, 8.24, 7.96, 7.96, 7.96, 7.96, 7.96, 8.24, 8.24, 7.95, 7.95, 8.24, 7.93, 7.93, 8.22, 8.22, 8.5, 8.5, 8.78, 8.78, 9.3, 8.94, 8.94, 9.01, 8.65, 8.93, 8.55, 8.55, 8.27, 8.27, 7.9, 7.35, 7.07, 6.7, 6.79, 7.44, 7.35, 6.15, 4.94, 4.65, 4.65, 4.65, 4.29, 4.55, 4.0, 3.88, 3.72, 2.4, 1.79, 1.79, 1.79, 1.7, 1.6, 1.26, 2.4, 2.8, 3.2, 3.2, 3.13, 0.6, -0.0, -0.0, 0.63, 0.95, 0.71, 0.71, 3.04, 8.36, 11.87, 10.8, 7.6, 5.64, 6.22, 8.38, 10.08, 10.05, 8.46, 4.92, 4.47, 5.36, 6.26, 4.02, 2.6, 1.26, 1.7, 2.68, 3.13, 3.13, 3.13, 6.94, 6.94, 6.94, 6.94, 7.59, 7.59, 7.59, 7.96, 7.96, 7.96, 7.96, 7.96, 7.96, 7.96, 7.96, 8.24, 8.24, 7.95, 7.95, 8.24, 7.93, 7.93, 7.93, 8.22, 8.22, 8.22, 8.5, 8.78, 8.78, 8.78, 9.08, 8.94, 8.94, 8.65, 8.65, 8.55, 8.55, 8.0, 8.27, 7.9, 7.35, 7.61, 7.07, 6.79, 7.35, 7.61, 6.56, 5.37, 4.65, 4.29, 4.29, 4.37, 4.0, 4.0, 4.0, 3.43, 2.4, 1.79, 1.79, 1.79, 1.79, 1.7, 1.7, 2.4, 2.8, 3.2, 3.6, 2.84, 0.57, -0.0, 0.6, 0.89, 0.6, 0.76, 1.6, 2.4, 5.86, 10.26, 12.65, 13.43, 13.14, 13.02, 13.85, 13.18, 12.01, 9.15, 5.32, 4.47, 4.87, 5.64, 3.53, 1.7, 0.45, 1.79, 2.24, 2.68, 2.68, 2.68, 6.94, 6.94, 6.94, 6.94, 7.33, 7.6, 7.6, 7.6, 7.96, 7.96, 7.96, 7.96, 8.24, 8.24, 8.24, 8.24, 7.95, 7.95, 7.95, 7.93, 7.93, 7.93, 8.22, 8.22, 8.22, 8.22, 8.22, 8.78, 8.78, 8.78, 8.78, 8.73, 8.73, 9.01, 8.65, 8.55, 8.37, 8.0, 8.27, 7.9, 7.35, 7.35, 7.61, 7.23, 7.07, 6.7, 6.56, 6.28, 5.37, 5.08, 4.55, 4.37, 4.0, 4.0, 4.0, 3.35, 2.49, 2.24, 2.24, 2.24, 2.24, 2.12, 2.12, 2.12, 2.8, 3.2, 3.2, 1.26, 1.58, 0.8, 0.95, 1.34, 1.6, 2.15, 3.07, 3.16, 4.4, 8.05, 10.93, 11.99, 13.14, 15.29, 16.42, 14.93, 12.13, 10.79, 9.68, 7.12, 5.32, 3.82, 4.8, 0.0, 0.0, 1.2, 1.79, 2.24, 2.24, 2.24, 6.94, 6.94, 6.94, 6.94, 7.22, 6.96, 7.33, 7.6, 7.6, 8.24, 8.24, 8.24, 8.24, 8.24, 7.95, 7.95, 7.95, 7.95, 8.24, 7.93, 7.93, 7.93, 8.22, 8.22, 8.22, 8.22, 8.52, 8.78, 8.45, 8.45, 8.45, 8.73, 8.73, 8.73, 8.65, 8.29, 8.37, 8.0, 7.9, 7.9, 7.72, 7.35, 7.61, 7.23, 7.07, 6.95, 6.56, 6.67, 6.28, 5.75, 5.47, 4.93, 4.55, 4.0, 4.0, 3.6, 3.07, 3.07, 2.68, 2.68, 2.24, 2.17, 2.17, 2.17, 2.17, 2.8, 3.2, 1.6, 1.79, 1.6, 1.34, 1.6, 1.6, 2.23, 3.04, 3.13, 4.47, 7.15, 8.91, 9.2, 11.28, 15.12, 17.09, 15.46, 13.33, 11.73, 10.88, 9.15, 4.02, 4.24, 0.0, -0.6, 0.0, 0.45, 0.89, 1.79, 1.79, 1.79, 6.53, 6.53, 6.7, 6.96, 6.96, 6.96, 7.33, 7.61, 7.61, 7.95, 7.95, 7.95, 7.95, 7.95, 7.95, 7.95, 7.95, 8.24, 7.93, 7.93, 7.93, 8.22, 8.22, 8.22, 8.22, 7.9, 8.19, 8.19, 8.45, 8.45, 8.45, 8.73, 8.73, 8.73, 8.65, 8.29, 8.37, 8.0, 7.9, 7.9, 7.35, 7.35, 7.61, 7.61, 7.07, 6.95, 6.56, 6.67, 6.28, 6.28, 5.75, 5.6, 5.08, 5.08, 4.4, 4.11, 3.82, 3.53, 3.07, 2.68, 2.68, 2.24, 2.17, 2.6, 2.17, 3.13, 3.13, 3.13, 3.58, 1.79, 1.7, 1.6, 1.2, 2.12, 2.24, 3.13, 4.92, 6.71, 6.98, 6.07, 8.32, 13.75, 17.38, 15.7, 13.54, 11.2, 8.48, 3.82, -0.0, -2.4, -2.17, -1.34, -0.45, 0.0, 0.89, 1.79, 1.79, 1.79, 6.29, 6.29, 6.29, 6.56, 6.96, 6.96, 6.96, 7.61, 7.61, 7.61, 7.95, 7.95, 7.95, 7.95, 7.95, 8.24, 8.24, 8.24, 7.93, 7.93, 7.93, 8.22, 8.22, 7.9, 7.9, 7.9, 8.19, 8.19, 8.45, 8.45, 8.45, 8.73, 8.73, 8.38, 8.65, 8.08, 8.37, 8.0, 7.9, 7.9, 7.35, 7.61, 7.61, 7.61, 7.23, 6.95, 6.56, 6.41, 6.67, 6.28, 6.28, 5.89, 6.0, 5.6, 4.9, 4.6, 4.3, 3.87, 3.53, 3.13, 2.68, 2.68, 2.68, 2.6, 2.6, 3.58, 3.13, 3.2, 3.2, 2.0, 1.6, 1.34, 1.79, 2.68, 3.13, 3.58, 3.58, 4.85, 5.34, 5.46, 7.03, 11.09, 14.46, 14.3, 12.68, 9.7, 4.93, 0.99, -3.07, -3.53, -3.07, -1.79, -0.89, 0.0, 0.63, 1.2, 1.2, 1.2, 6.29, 6.29, 6.56, 6.56, 6.56, 6.7, 6.96, 7.24, 7.61, 7.61, 7.95, 7.95, 8.24, 8.24, 8.24, 8.24, 8.24, 7.93, 7.93, 7.93, 8.22, 7.9, 7.9, 7.9, 7.9, 8.19, 8.19, 8.19, 8.45, 8.45, 8.73, 8.73, 8.38, 8.15, 8.08, 8.08, 8.0, 8.0, 7.9, 7.9, 7.72, 7.61, 7.61, 7.61, 7.23, 6.95, 6.95, 6.56, 6.41, 6.67, 6.28, 6.28, 6.28, 6.1, 5.4, 5.09, 4.6, 4.3, 3.53, 3.09, 3.13, 2.68, 2.68, 2.68, 2.63, 1.34, 1.6, 2.0, 2.23, 2.23, 2.12, 1.7, 1.34, 2.24, 3.13, 3.13, 2.24, 3.04, 3.83, 4.84, 6.0, 7.6, 9.27, 11.2, 11.05, 9.6, 1.26, -0.65, -1.2, -1.86, -2.12, -1.79, -0.45, 0.0, 0.63, 0.45, 0.45, 0.45, 6.29, 6.56, 6.56, 6.56, 6.31, 6.7, 6.7, 6.97, 6.97, 7.61, 7.61, 8.24, 8.24, 8.24, 8.24, 8.24, 7.93, 7.93, 7.93, 8.22, 8.22, 7.9, 7.9, 7.9, 8.19, 8.19, 8.19, 8.19, 8.19, 8.45, 8.73, 8.15, 8.15, 8.08, 8.08, 8.08, 8.0, 8.0, 7.64, 7.9, 7.9, 7.35, 7.61, 7.61, 7.23, 6.7, 6.95, 6.95, 6.41, 6.41, 6.67, 6.28, 6.28, 6.0, 5.81, 5.31, 5.02, 4.34, 3.87, 3.53, 3.09, 3.13, 2.68, 2.68, 2.68, 2.24, 1.2, 1.6, 1.6, 2.12, 2.54, 2.23, 1.79, 2.24, 2.68, 2.68, 2.68, 2.12, 3.74, 4.8, 5.75, 5.43, 5.77, 8.67, 11.62, 7.12, 1.26, -0.54, -0.65, -0.0, -0.0, -0.0, 0.0, 0.0, -0.0, -0.54, -0.54, -0.54, 6.56, 6.96, 6.56, 6.31, 6.31, 6.31, 6.7, 6.97, 6.97, 6.97, 7.33, 7.61, 7.93, 8.24, 8.24, 7.93, 7.93, 7.93, 8.22, 8.22, 8.22, 8.22, 7.9, 7.9, 8.19, 8.19, 8.19, 8.19, 8.19, 8.19, 8.15, 8.15, 8.15, 8.08, 8.08, 7.73, 8.0, 8.0, 7.64, 7.9, 7.9, 7.9, 7.61, 7.61, 7.23, 7.07, 6.7, 6.95, 6.56, 6.41, 6.41, 6.28, 6.28, 6.1, 5.81, 5.4, 5.09, 4.6, 4.3, 3.87, 3.53, 3.13, 3.13, 2.68, 2.68, 2.6, 1.34, 1.34, 2.54, 2.97, 3.04, 2.54, 2.6, 1.79, 1.34, 1.79, 2.24, 2.68, 3.47, 4.38, 5.09, 5.75, 5.43, 7.89, 12.96, 8.94, 1.7, -0.57, -0.6, -0.57, -0.0, -0.0, -0.0, -0.0, -1.2, -1.49, -1.49, -1.49, 6.96, 6.96, 6.96, 6.7, 6.31, 6.58, 6.97, 6.97, 6.97, 6.97, 6.97, 7.33, 7.61, 7.93, 7.93, 7.93, 7.93, 7.93, 8.22, 8.22, 8.22, 8.22, 7.9, 8.19, 8.19, 8.19, 8.19, 8.19, 8.19, 8.15, 8.15, 8.15, 8.08, 8.08, 7.73, 7.8, 7.8, 7.44, 7.44, 7.64, 7.9, 7.9, 7.9, 7.61, 7.61, 7.07, 6.7, 6.7, 6.95, 6.41, 6.41, 6.67, 6.28, 6.1, 6.0, 5.81, 5.31, 5.02, 4.34, 3.87, 3.98, 3.53, 3.13, 3.13, 2.68, 2.24, 1.34, 1.34, 1.34, 2.24, 2.68, 3.13, 2.68, 1.79, 1.34, 1.34, 1.34, 3.13, 3.58, 3.58, 4.38, 4.66, 5.59, 12.96, 14.75, 11.18, 2.68, 0.45, 0.0, -1.34, -1.9, -0.65, -0.54, -1.2, -2.07, -2.88, -2.88, -2.88, 6.96, 6.96, 6.96, 6.7, 6.7, 6.97, 6.97, 6.97, 6.97, 6.97, 6.97, 6.97, 7.61, 7.61, 7.93, 7.93, 8.22, 8.22, 8.22, 8.22, 8.22, 8.22, 7.9, 8.19, 8.19, 8.19, 8.19, 8.19, 8.19, 8.15, 8.15, 7.81, 8.08, 8.08, 7.73, 7.8, 7.44, 7.44, 7.44, 7.64, 7.9, 7.9, 7.9, 7.72, 7.61, 7.23, 7.07, 6.7, 6.7, 6.95, 6.41, 6.41, 6.28, 6.1, 6.0, 5.81, 5.31, 5.09, 4.6, 4.3, 3.87, 3.98, 3.53, 3.58, 2.68, 2.24, 1.79, 1.79, 1.34, 1.34, 2.54, 2.6, 3.47, 1.79, 0.95, 0.89, 1.79, 2.54, 2.97, 2.97, 3.13, 3.47, 7.89, 12.42, 13.25, 9.36, 2.17, 0.0, 0.0, -1.34, -1.9, -1.49, -1.2, -1.84, -2.98, -2.88, -2.88, -2.88, 6.96, 6.96, 6.96, 6.7, 6.97, 6.97, 6.97, 6.97, 6.97, 6.97, 6.97, 6.97, 6.97, 7.61, 7.61, 7.93, 8.22, 8.22, 8.22, 8.22, 8.22, 7.9, 7.9, 8.19, 8.19, 8.19, 8.19, 8.19, 8.15, 8.15, 8.15, 8.08, 8.08, 7.73, 7.51, 7.8, 7.44, 7.44, 7.44, 7.44, 7.64, 7.9, 7.9, 7.72, 7.35, 7.61, 7.23, 7.07, 6.7, 6.95, 6.56, 6.41, 6.28, 6.28, 6.0, 5.6, 5.4, 4.9, 4.6, 4.77, 4.3, 3.98, 3.53, 3.53, 3.13, 2.68, 2.68, 2.24, 1.79, 1.2, 1.2, 2.6, 2.97, 2.68, 2.12, 1.6, 1.79, 1.9, 1.74, 2.21, 1.9, 2.24, 4.93, 7.6, 7.47, 2.91, 0.0, -0.71, -0.63, -1.7, -2.84, -2.07, -2.15, -2.98, -2.88, -2.66, -2.66, -2.66, 6.56, 6.56, 6.7, 6.7, 6.97, 6.97, 6.97, 6.97, 6.97, 6.97, 6.97, 6.97, 6.97, 7.26, 7.61, 7.61, 8.22, 8.22, 8.22, 8.22, 7.9, 7.9, 7.9, 8.19, 8.19, 8.19, 8.19, 8.15, 8.15, 8.15, 7.81, 8.08, 8.08, 7.73, 7.8, 7.8, 7.8, 7.44, 7.44, 7.44, 7.64, 7.64, 7.9, 7.72, 7.35, 7.35, 7.61, 7.23, 7.07, 6.95, 6.95, 6.56, 6.28, 6.28, 6.1, 5.6, 5.81, 5.31, 5.09, 4.6, 4.77, 4.3, 3.98, 3.53, 3.53, 3.07, 3.07, 3.07, 3.07, 2.12, 1.26, 1.2, 2.54, 2.24, 2.68, 2.68, 2.68, 2.21, 1.98, 0.99, 0.85, 1.2, 2.24, 3.74, 3.82, 2.68, 0.0, -1.24, -1.7, -2.5, -3.79, -3.55, -3.69, -3.11, -2.88, -3.0, -3.0, -3.0, 6.31, 6.31, 6.7, 6.7, 6.97, 6.97, 6.97, 6.71, 6.71, 6.71, 6.71, 6.71, 6.97, 7.26, 7.61, 7.61, 7.61, 8.22, 8.22, 8.22, 7.9, 7.9, 8.19, 8.19, 8.19, 8.19, 8.15, 8.15, 8.15, 7.81, 8.08, 8.08, 7.73, 7.73, 7.8, 7.8, 7.8, 7.44, 7.44, 7.64, 7.64, 7.9, 7.9, 7.72, 7.35, 7.35, 7.61, 7.23, 7.23, 7.34, 6.95, 6.8, 6.8, 6.28, 6.1, 6.0, 5.81, 5.4, 5.51, 5.09, 4.77, 4.77, 4.3, 3.87, 3.82, 3.39, 3.32, 3.39, 3.39, 1.86, 1.26, 1.26, 1.2, 0.89, 2.68, 3.13, 2.97, 2.6, 1.98, 0.87, 0.0, 0.6, 1.7, 3.13, 4.92, 4.47, 2.91, 0.6, -1.26, -2.21, -4.43, -4.67, -3.4, -2.2, -2.8, -3.09, -3.09, -3.09, 6.31, 6.31, 6.7, 6.97, 6.97, 6.97, 6.97, 6.71, 6.71, 6.71, 6.98, 6.98, 6.98, 6.98, 6.98, 7.61, 7.61, 7.61, 8.22, 8.22, 7.9, 8.19, 8.19, 8.19, 8.19, 7.86, 8.15, 8.15, 8.15, 8.08, 8.08, 8.08, 7.73, 7.73, 8.0, 8.0, 8.0, 8.0, 8.0, 7.64, 7.64, 7.9, 7.72, 7.72, 7.35, 7.35, 7.61, 7.23, 7.23, 7.48, 7.48, 6.95, 6.8, 6.8, 6.51, 6.1, 6.23, 5.81, 5.57, 5.51, 5.09, 4.6, 4.77, 4.34, 4.3, 3.87, 3.82, 3.6, 3.6, 2.23, 1.86, 0.99, 0.6, 0.6, 2.6, 2.98, 2.98, 2.6, 2.53, 1.2, 0.6, 0.6, 1.58, 3.74, 7.56, 8.94, 8.05, 5.36, 2.6, -0.0, -1.88, -3.43, -2.6, -2.35, -2.26, -2.26, -2.26, -2.26, 6.31, 6.31, 6.97, 6.97, 6.97, 6.97, 6.71, 6.71, 6.98, 6.98, 6.98, 6.98, 6.98, 6.98, 6.98, 7.32, 7.32, 7.32, 7.6, 7.9, 7.9, 8.19, 8.19, 8.19, 7.86, 8.15, 8.15, 8.15, 7.81, 8.08, 8.08, 8.08, 7.73, 7.73, 8.0, 8.0, 8.0, 8.0, 8.0, 7.64, 7.9, 7.9, 7.72, 7.35, 7.35, 7.61, 7.61, 7.23, 7.23, 7.48, 7.48, 7.08, 7.2, 6.8, 7.01, 6.51, 6.3, 6.3, 5.81, 5.81, 5.31, 5.09, 4.6, 4.6, 4.77, 4.11, 4.11, 3.7, 3.88, 3.88, 3.35, 1.24, 0.57, 0.57, 0.57, 2.84, 2.53, 2.6, 2.98, 2.6, 2.4, 2.21, 3.22, 4.4, 8.36, 10.26, 10.28, 8.91, 7.94, 5.64, 1.86, -0.54, -1.23, -1.55, -1.58, -2.4, -2.4, -2.4, 6.58, 6.58, 6.58, 6.97, 6.97, 6.97, 6.71, 6.71, 6.98, 6.98, 6.98, 6.98, 6.98, 6.98, 6.98, 7.32, 7.32, 7.32, 7.32, 7.6, 7.9, 7.9, 8.19, 8.19, 7.86, 8.15, 8.15, 8.15, 7.81, 8.08, 8.08, 8.08, 7.73, 8.0, 8.0, 8.0, 8.0, 8.0, 8.0, 8.27, 7.9, 7.9, 7.72, 7.35, 7.61, 7.61, 7.61, 7.23, 7.48, 7.48, 7.48, 7.48, 7.31, 7.2, 7.01, 6.6, 6.51, 6.3, 6.3, 6.3, 5.81, 5.31, 5.09, 4.6, 4.6, 4.6, 4.6, 4.11, 4.27, 4.27, 3.88, 1.24, 0.71, 1.27, 0.57, 1.26, 2.53, 3.6, 3.6, 3.6, 2.97, 3.35, 4.22, 4.8, 8.19, 10.7, 11.18, 10.62, 9.62, 9.62, 7.48, 3.32, 0.59, -0.0, -0.69, -1.4, -1.4, -1.4, 6.58, 6.58, 6.58, 6.97, 6.71, 6.71, 6.71, 6.98, 6.98, 6.98, 6.98, 6.98, 6.98, 6.98, 6.98, 7.32, 7.32, 7.6, 7.6, 7.6, 7.6, 7.9, 7.9, 8.19, 7.86, 8.15, 8.15, 7.81, 7.81, 8.08, 8.08, 7.73, 7.73, 8.0, 8.0, 8.0, 8.0, 8.0, 8.0, 7.9, 7.9, 7.9, 7.72, 7.61, 7.61, 7.61, 7.23, 7.48, 7.48, 7.48, 7.48, 7.48, 7.31, 7.2, 6.8, 7.01, 6.6, 6.6, 6.79, 6.72, 6.3, 5.4, 5.09, 5.09, 5.09, 5.09, 5.02, 4.4, 4.4, 4.4, 4.27, 3.43, 2.51, 2.23, 0.57, 1.26, 3.22, 3.6, 3.6, 3.6, 4.0, 3.58, 4.19, 5.05, 8.14, 10.26, 11.6, 11.4, 10.75, 10.25, 9.33, 6.94, 3.48, 0.67, -0.0, -0.78, -0.78, -0.78, 6.58, 6.58, 6.58, 6.97, 6.71, 6.71, 6.71, 6.98, 6.98, 6.98, 6.98, 6.98, 6.98, 6.98, 6.98, 7.32, 7.32, 7.6, 7.6, 7.6, 7.6, 7.9, 7.9, 8.19, 7.86, 8.15, 8.15, 7.81, 7.81, 8.08, 8.08, 7.73, 7.73, 8.0, 8.0, 8.0, 8.0, 8.0, 8.0, 7.9, 7.9, 7.9, 7.72, 7.61, 7.61, 7.61, 7.23, 7.48, 7.48, 7.48, 7.48, 7.48, 7.31, 7.2, 6.8, 7.01, 6.6, 6.6, 6.79, 6.72, 6.3, 5.4, 5.09, 5.09, 5.09, 5.09, 5.02, 4.4, 4.4, 4.4, 4.27, 3.43, 2.51, 2.23, 0.57, 1.26, 3.58, 3.6, 3.6, 3.6, 4.0, 4.22, 4.84, 5.05, 6.79, 9.36, 11.18, 11.4, 11.66, 11.87, 11.62, 10.15, 6.08, 1.49, -0.0, -0.0, -0.0, -0.0]}, {"header": {"dx": 0.06612293990616946, "dy": 0.0552356325346848, "nx": 98, "ny": 59, "la1": 35.046912555036876, "la2": 31.78801023549047, "lo1": -121.43107172385933, "lo2": -114.95102361305473, "refTime": "2026041604", "parameterCategory": 1, "parameterNumber": 3}, "data": [-14.66, -14.3, -14.3, -14.08, -13.73, -12.56, -11.63, -11.63, -10.99, -10.09, -9.13, -7.55, -4.65, -1.49, -0.8, -0.6, 0.0, 0.0, 0.0, 0.0, 0.0, 0.0, 0.0, 0.0, 0.0, 0.0, -0.71, -2.12, -2.68, -2.68, -2.68, -2.68, -2.6, -2.6, -2.4, -2.5, -2.21, -1.88, -2.21, -2.8, -3.39, -4.4, -5.95, -6.64, -7.41, -8.61, -9.55, -4.68, 1.4, 5.43, 6.06, 6.32, 6.24, 6.95, 7.18, 7.08, 6.62, 6.33, 5.99, 5.4, 5.4, 4.68, 4.5, 4.6, 4.6, 4.5, 4.58, 4.58, 4.4, 4.8, 4.5, 4.83, 4.07, 3.95, 3.02, 3.85, 3.16, 2.88, 2.31, 0.75, 1.4, 2.24, 1.7, 0.45, 0.0, -0.65, -1.55, -1.55, 0.53, 2.91, 3.53, 3.07, 3.07, 2.91, 3.07, 3.45, 3.6, 4.0, -14.3, -14.3, -14.3, -14.08, -13.73, -13.15, -12.22, -11.63, -11.33, -10.4, -9.72, -8.65, -5.06, -2.15, -2.2, -1.13, 0.0, 0.0, 0.0, -0.89, -1.34, -1.2, -0.71, 0.0, 0.0, 0.0, -0.85, -1.7, -2.68, -3.04, -2.63, -2.68, -2.68, -2.17, -2.4, -2.21, -2.53, -2.07, -2.07, -2.53, -3.45, -6.0, -8.0, -9.27, -10.75, -10.32, -5.3, 0.65, 4.93, 5.46, 5.69, 6.01, 6.24, 6.58, 6.51, 6.31, 6.45, 5.99, 5.4, 5.4, 4.75, 4.68, 4.6, 3.95, 3.78, 3.69, 3.85, 3.85, 4.5, 4.6, 4.92, 4.5, 3.78, 3.85, 3.85, 3.85, 3.85, 2.88, 2.31, 0.75, 1.4, 2.24, 1.7, 0.45, 0.0, -0.65, -1.55, -1.55, 0.53, 2.91, 3.53, 3.07, 3.07, 2.91, 3.07, 3.45, 3.6, 4.0, -14.59, -14.3, -14.3, -14.3, -14.08, -13.73, -12.8, -11.96, -11.03, -10.99, -10.3, -8.73, -5.37, -3.07, -1.4, -0.85, 0.0, -0.6, -1.2, -1.34, -1.34, -2.24, -2.54, -2.23, -1.49, -0.65, -0.65, -1.26, -2.24, -3.32, -3.32, -3.07, -2.68, -2.24, -2.4, -2.21, -2.07, -2.98, -3.72, -3.72, -5.72, -8.55, -9.92, -10.9, -9.48, -5.38, 0.7, 4.84, 5.09, 5.43, 5.37, 6.01, 6.01, 5.94, 5.86, 5.28, 5.41, 4.87, 4.58, 3.91, 3.76, 3.95, 3.78, 3.78, 3.78, 3.95, 3.85, 4.8, 4.8, 5.41, 5.41, 4.68, 3.76, 3.76, 3.16, 3.16, 2.34, 3.04, 2.02, 0.79, 1.4, 2.24, 1.79, 1.2, 0.0, -0.61, -1.94, 0.0, 2.17, 3.13, 3.13, 2.63, 2.63, 2.6, 3.07, 3.97, 4.73, 4.93, -14.59, -14.59, -14.3, -14.3, -13.73, -13.73, -13.15, -12.56, -11.63, -10.99, -10.3, -9.59, -7.41, -3.48, -1.2, -0.65, -0.65, -0.71, -1.2, -1.34, -1.34, -1.79, -2.24, -2.68, -2.6, -1.58, -1.24, -1.58, -2.24, -3.74, -4.93, -5.16, -4.24, -3.13, -2.6, -2.53, -3.48, -4.19, -6.01, -7.02, -7.97, -8.27, -6.95, -4.56, -1.47, 0.81, 4.01, 4.65, 5.06, 5.37, 5.37, 5.3, 5.3, 5.59, 5.21, 4.6, 4.4, 3.85, 3.76, 3.85, 3.69, 3.78, 3.78, 3.78, 3.95, 3.95, 4.6, 5.62, 6.36, 6.29, 6.33, 5.4, 4.65, 3.6, 2.19, 0.79, 0.0, 0.0, 0.75, 0.0, 0.53, 2.24, 2.12, 1.26, 0.0, -0.7, -0.61, 1.2, 2.6, 2.68, 3.13, 3.13, 3.13, 2.68, 3.58, 5.36, 6.22, 5.86, -14.59, -14.59, -14.59, -14.3, -13.73, -13.73, -13.73, -13.15, -11.63, -10.99, -10.3, -9.86, -7.06, -3.84, -2.15, -2.41, -1.4, -0.71, -1.26, -2.24, -2.24, -2.24, -1.34, -1.34, -1.79, -2.24, -2.12, -2.24, -2.68, -3.51, -4.66, -5.86, -7.21, -7.45, -7.52, -7.4, -6.99, -8.0, -8.3, -7.68, -5.69, -2.4, 0.0, 0.7, 1.41, 2.8, 3.9, 4.65, 5.37, 5.37, 4.65, 4.95, 4.65, 4.95, 4.46, 4.0, 3.88, 3.78, 3.85, 3.85, 3.11, 4.07, 3.78, 3.78, 3.95, 4.4, 4.5, 6.14, 7.82, 7.9, 7.69, 7.01, 6.2, 5.38, 3.11, 0.7, -1.47, -2.25, -0.75, 0.0, 0.65, 1.2, 0.6, 0.0, 0.0, -0.61, 0.0, 1.2, 1.86, 2.63, 3.97, 4.47, 4.02, 3.58, 5.77, 7.6, 6.98, 5.86, -14.23, -14.59, -14.59, -14.23, -13.73, -13.73, -13.73, -13.15, -12.22, -11.58, -10.3, -9.5, -7.07, -4.11, -2.41, -2.15, -2.21, -2.53, -3.22, -4.66, -6.26, -6.21, -4.34, -2.12, -2.24, -3.13, -4.92, -4.92, -4.92, -3.58, -3.13, -3.51, -5.77, -8.05, -9.28, -9.15, -8.4, -8.06, -7.06, -3.22, -0.99, 0.0, 0.66, 0.74, 0.79, 3.0, 4.65, 4.95, 5.37, 4.65, 3.9, 4.01, 3.64, 3.9, 3.69, 3.15, 3.06, 2.97, 3.85, 3.76, 3.25, 2.97, 2.97, 3.78, 3.88, 4.83, 5.49, 6.53, 6.79, 7.12, 6.31, 6.2, 7.01, 6.28, 4.66, 2.39, 0.0, -2.12, -0.72, 0.0, 0.0, -0.6, -0.99, -1.24, -1.61, -1.26, -0.6, -0.0, 1.49, 2.86, 4.4, 5.32, 4.92, 5.32, 7.56, 7.15, 6.11, 5.6, -14.23, -14.23, -14.23, -14.23, -14.02, -13.73, -13.73, -13.38, -13.09, -11.87, -10.23, -9.1, -6.44, -3.35, -3.45, -2.15, -3.16, -4.11, -4.81, -5.43, -5.64, -6.26, -7.45, -7.89, -7.6, -7.6, -8.43, -8.43, -7.31, -5.59, -2.54, -2.17, -3.13, -5.59, -8.19, -8.19, -8.4, -6.7, -2.84, -0.6, 0.0, 0.0, 0.0, 0.0, 0.96, 3.64, 5.69, 5.59, 5.3, 4.46, 4.22, 3.72, 3.64, 3.55, 3.09, 3.15, 3.06, 2.35, 2.39, 3.16, 2.31, 2.28, 2.35, 2.99, 4.83, 6.24, 6.42, 5.38, 4.71, 4.01, 3.82, 3.07, 2.88, 3.14, 2.35, 2.35, 1.5, 0.0, 0.0, 0.0, 0.0, -2.4, -2.91, -3.32, -2.5, -1.34, -0.71, -0.0, 1.61, 3.45, 4.52, 5.2, 6.22, 8.01, 8.05, 6.66, 5.86, 5.05, -14.51, -14.23, -14.23, -14.23, -14.02, -13.73, -13.38, -13.44, -13.09, -12.09, -10.51, -9.35, -6.82, -4.11, -4.46, -2.98, -2.98, -4.74, -4.11, -3.84, -2.41, -1.16, -2.5, -5.77, -7.6, -7.6, -7.97, -7.95, -6.99, -6.4, -5.94, -6.17, -6.71, -8.17, -7.98, -6.36, -5.64, -3.74, -1.58, -0.95, 0.0, 0.0, 0.0, 0.0, 1.58, 2.98, 4.43, 4.56, 4.83, 4.46, 3.22, 3.47, 3.79, 3.4, 3.09, 2.31, 2.44, 1.52, 1.54, 1.5, 1.54, 1.52, 2.35, 4.01, 5.77, 6.32, 5.41, 3.78, 1.6, 0.0, 0.0, 0.0, 0.0, -0.74, -0.75, 0.0, 1.55, 2.21, 2.31, 0.77, 0.0, -3.45, -4.43, -4.52, -2.79, -0.57, 0.0, 0.45, 2.24, 3.97, 5.64, 6.55, 7.45, 8.46, 8.05, 6.55, 5.44, 5.05, -14.51, -14.51, -14.23, -14.23, -14.02, -14.02, -13.66, -13.09, -12.73, -12.37, -11.07, -10.55, -9.8, -8.63, -7.44, -5.77, -5.77, -5.77, -4.19, -2.23, -1.0, 0.0, -0.83, -2.4, -3.83, -3.47, -3.13, -3.2, -6.7, -7.81, -9.33, -10.73, -11.18, -9.33, -6.26, -2.68, -1.79, -1.79, -1.34, -0.89, 0.0, 0.0, 0.0, 0.0, 0.95, 0.57, 1.0, 2.0, 3.9, 3.79, 4.21, 3.9, 3.79, 3.2, 2.26, 1.55, 0.76, 0.73, 0.0, 0.0, 0.0, 0.76, 2.68, 4.84, 5.43, 4.96, 3.85, 2.31, -0.77, -2.35, -2.35, -2.01, -2.39, -2.15, -2.02, -0.75, 0.0, 0.78, 0.73, 0.68, 0.74, -2.51, -4.24, -4.52, -2.48, 0.0, 0.59, 0.61, 1.88, 4.02, 6.22, 7.04, 7.33, 7.56, 7.15, 6.11, 4.93, 4.52, -14.13, -14.13, -14.13, -14.23, -14.02, -13.66, -13.66, -13.09, -13.01, -12.27, -11.62, -11.88, -11.22, -11.6, -11.5, -10.55, -10.63, -11.09, -10.7, -10.04, -9.6, -8.79, -7.64, -6.52, -5.24, -4.57, -2.6, -2.24, -4.98, -8.67, -8.05, -5.81, -3.13, -2.23, -2.21, -1.86, -1.34, -0.89, -0.89, 0.0, 0.0, 0.4, 0.0, 0.0, 0.0, 0.0, 0.0, 0.0, 1.49, 3.11, 4.16, 4.56, 3.79, 3.0, 1.52, 0.78, 0.0, 0.0, 0.0, 0.0, 0.0, 1.74, 5.37, 5.82, 5.37, 3.69, 3.06, 2.06, -0.69, -3.55, -4.56, -4.14, -3.51, -2.69, -2.17, -2.06, -2.31, -2.18, -1.4, -0.68, 0.71, 2.01, -1.88, -1.84, -0.7, 0.67, 1.41, 1.35, 2.15, 3.53, 4.43, 5.2, 5.64, 5.77, 5.36, 4.73, 4.0, 4.0, -14.13, -14.13, -14.13, -13.66, -13.66, -13.66, -13.66, -13.09, -12.93, -12.27, -12.16, -12.27, -12.27, -12.16, -11.6, -12.29, -13.52, -13.32, -13.73, -14.34, -15.34, -15.45, -14.4, -12.09, -10.28, -6.17, -3.13, -1.79, -2.24, -3.58, -2.68, -1.2, -0.0, -0.0, -0.57, -1.58, -1.79, -0.45, -0.63, 0.0, 0.71, 0.57, 0.6, 0.0, 0.0, 0.0, 0.0, 0.71, 1.74, 3.16, 4.46, 5.43, 5.06, 4.01, 2.98, 2.2, 2.2, 0.73, 0.0, 0.0, 1.86, 4.8, 6.8, 7.03, 8.05, 7.69, 7.06, 4.74, 0.65, -0.65, -2.15, -2.66, -2.8, -1.98, -2.06, -2.12, -2.82, -2.29, -1.41, 0.0, 1.47, 4.22, 4.87, 0.63, 1.3, 2.12, 2.82, 2.8, 2.79, 2.91, 3.13, 3.53, 3.82, 4.43, 4.02, 3.82, 3.82, 3.82, -14.13, -13.94, -13.94, -13.94, -13.66, -13.66, -13.66, -13.01, -12.93, -12.27, -12.27, -12.82, -12.93, -11.8, -10.23, -10.51, -9.76, -10.0, -10.71, -11.62, -10.91, -9.7, -9.11, -9.16, -6.61, -4.92, -3.39, -0.6, -0.0, -0.0, -0.6, -0.0, -0.0, 0.57, 0.42, -0.0, -0.63, 0.0, 0.0, 0.6, 1.24, 1.24, 1.58, 1.13, 0.0, 0.0, 0.6, 1.58, 2.97, 2.97, 3.74, 4.4, 4.84, 4.84, 4.84, 4.81, 5.46, 3.07, 0.6, 1.34, 6.66, 8.91, 9.33, 9.06, 10.49, 12.3, 12.14, 9.54, 5.86, 4.0, 2.84, 1.27, 0.0, -0.7, -1.35, -1.45, -1.35, 0.0, 0.0, 0.71, 1.88, 3.72, 4.46, 3.91, 3.91, 4.28, 4.2, 3.33, 3.38, 2.79, 2.4, 2.68, 3.53, 3.97, 3.58, 3.07, 3.07, 3.97, -13.76, -13.58, -13.94, -13.94, -13.66, -13.66, -13.3, -13.01, -12.56, -12.27, -12.27, -12.56, -12.93, -12.09, -11.28, -9.77, -7.55, -6.23, -5.93, -6.23, -5.71, -4.05, -3.4, -1.65, -0.53, -0.54, 0.0, 0.0, 0.63, 0.53, -0.0, -0.0, -0.0, 0.57, 0.6, 0.63, 0.63, 1.34, 1.34, 1.2, 1.26, 0.99, 1.24, 0.0, 0.0, 0.0, 0.89, 1.79, 1.6, 1.6, 1.34, 1.2, 1.2, 1.6, 2.0, 1.58, 2.84, 2.95, 0.0, 1.7, 8.46, 10.16, 10.45, 10.62, 12.07, 12.07, 11.6, 10.62, 9.11, 9.49, 8.3, 5.09, 1.2, 0.0, -0.66, -0.73, 0.0, 1.58, 2.53, 3.07, 3.07, 2.3, 2.06, 2.4, 4.71, 5.28, 4.5, 4.2, 4.29, 4.75, 4.12, 2.91, 3.13, 3.13, 3.13, 2.63, 3.13, 3.97, -13.85, -13.58, -13.58, -13.94, -13.94, -13.66, -13.38, -13.01, -12.56, -12.65, -12.65, -12.37, -12.37, -12.45, -11.58, -10.36, -7.9, -5.71, -4.75, -4.75, -4.45, -3.97, -2.77, -2.23, -1.14, -1.15, -1.11, -1.12, -0.57, -0.0, -0.0, -0.0, -0.0, -0.0, 0.63, 1.2, 1.34, 1.79, 1.2, 0.63, 0.0, 0.0, 0.0, 0.0, 0.0, 0.0, 1.34, 0.89, 0.0, 0.0, 0.0, -0.89, -0.89, 0.0, 0.0, -0.45, 0.0, 0.0, -0.76, 1.79, 7.71, 8.94, 10.22, 10.28, 9.83, 8.91, 8.38, 7.15, 7.31, 6.08, 6.7, 3.74, 1.79, 0.0, 0.0, 0.0, 1.9, 3.48, 3.72, 3.55, 3.0, 1.63, 0.71, 0.0, 2.12, 3.06, 3.85, 4.6, 4.94, 5.72, 5.72, 3.72, 3.74, 3.07, 3.07, 2.6, 2.68, 3.53, -13.85, -13.58, -13.58, -13.58, -13.58, -13.58, -13.38, -12.65, -12.56, -12.37, -12.37, -12.37, -12.37, -12.09, -11.87, -10.36, -9.13, -7.59, -6.04, -5.44, -5.34, -5.29, -5.0, -4.68, -3.99, -2.82, -2.3, -1.73, -1.67, -0.99, 0.0, 0.0, 1.34, 1.79, 2.68, 4.02, 4.02, 1.79, 2.8, 0.6, 0.0, 0.0, -1.6, -1.4, 0.0, 2.68, 3.58, 2.68, 1.79, 0.0, -0.45, -1.2, -0.95, 0.0, 0.0, 0.0, -1.34, -2.86, -1.41, 2.6, 5.77, 5.26, 4.92, 4.02, 4.02, 4.02, 2.97, 1.34, 2.4, 2.98, 3.13, 3.07, 1.86, 1.34, 1.2, 2.21, 3.79, 4.65, 4.03, 3.91, 3.09, 1.55, 0.74, 0.0, -1.4, 0.0, 0.76, 3.6, 5.69, 6.7, 6.68, 5.38, 4.4, 4.24, 4.66, 3.07, 3.53, 3.53, -13.85, -13.85, -13.58, -13.58, -13.58, -13.58, -13.01, -12.65, -12.73, -12.37, -12.37, -12.37, -12.37, -11.52, -10.94, -10.3, -9.46, -8.53, -7.6, -6.69, -6.08, -5.95, -5.89, -5.17, -4.65, -3.47, -2.28, -1.67, -1.73, -1.73, -1.08, -0.53, 0.0, 0.0, 3.13, 2.24, 3.13, 3.04, 2.84, 0.0, 0.0, 0.0, 0.0, 0.0, 1.2, 3.13, 3.58, 3.13, 2.24, 1.79, 0.0, 0.0, 0.0, 0.0, 0.0, 0.0, -1.58, -2.23, 0.0, 3.91, 4.66, 5.36, 4.24, 2.84, 0.8, 0.95, 0.0, 0.0, 1.7, 2.24, 1.61, 1.2, 1.26, 1.79, 2.23, 3.49, 6.39, 7.27, 6.14, 5.49, 5.21, 4.56, 2.29, 0.76, -0.6, -2.24, -0.65, 1.4, 4.46, 5.72, 6.32, 4.73, 4.52, 5.02, 5.6, 3.6, 3.39, 3.39, -13.85, -13.85, -13.58, -13.58, -13.58, -13.58, -13.01, -12.65, -12.73, -12.37, -12.37, -12.0, -11.8, -11.8, -10.88, -10.3, -9.46, -9.13, -8.24, -6.98, -5.7, -5.69, -5.23, -4.54, -2.96, -2.37, -1.71, -1.71, -1.11, -1.69, -1.67, -1.73, -1.07, 0.0, 1.26, 2.12, 2.12, 1.58, 0.71, 0.0, 0.0, 0.0, 0.0, 0.0, 1.4, 3.13, 3.13, 3.13, 2.8, 2.21, 1.6, 1.6, 1.27, 2.48, 1.19, 1.19, 0.0, 0.0, 2.26, 5.69, 5.93, 4.65, 3.72, 2.48, 1.19, 0.0, 0.0, 0.0, 0.45, -0.0, -0.65, -0.65, -0.0, 1.2, 1.9, 5.43, 8.3, 9.62, 9.23, 7.97, 7.33, 6.39, 4.36, 2.73, 0.65, 0.0, -0.63, 2.68, 4.19, 4.65, 5.64, 5.36, 4.52, 4.52, 5.05, 4.09, 3.6, 3.6, -13.85, -13.85, -13.85, -13.58, -13.58, -13.58, -13.01, -12.65, -12.45, -12.37, -12.37, -11.8, -11.44, -10.88, -10.3, -9.72, -9.77, -9.17, -8.24, -6.71, -5.92, -5.23, -4.57, -3.42, -1.74, -1.14, -1.77, -1.71, -1.72, -1.74, -2.23, -2.3, -1.73, 0.0, 1.13, 0.6, 0.6, 0.0, 0.0, 0.0, -0.65, -0.71, 0.0, 0.0, 1.4, 2.8, 3.13, 2.8, 2.53, 2.84, 2.48, 2.48, 2.73, 2.2, 2.4, 2.6, 2.16, 3.45, 4.47, 4.75, 4.47, 3.76, 2.2, 1.19, 0.0, 0.0, 0.0, -0.6, -2.12, -2.24, -2.54, -1.86, 0.0, 0.53, 1.88, 3.74, 6.44, 7.59, 7.44, 6.88, 5.3, 3.79, 3.0, 2.04, 2.2, 2.2, 2.53, 3.22, 2.15, 2.15, 4.74, 6.08, 5.05, 4.0, 4.09, 4.09, 4.66, 4.66, -13.48, -13.85, -13.85, -13.58, -13.21, -13.21, -13.01, -13.01, -12.45, -12.09, -12.16, -11.8, -11.23, -10.8, -10.23, -9.9, -10.01, -9.72, -8.24, -6.31, -5.62, -5.83, -5.89, -4.6, -3.78, -3.47, -2.87, -3.07, -3.07, -2.9, -3.42, -2.69, -1.12, 0.0, 0.51, 0.54, 0.0, -1.16, -0.76, -0.99, -0.76, -0.65, -0.71, 0.0, 1.13, 2.53, 2.53, 2.53, 2.53, 2.84, 2.23, 2.48, 2.73, 3.48, 4.65, 4.74, 4.43, 4.74, 4.47, 3.68, 3.45, 2.6, 2.4, 0.0, 0.0, 0.8, 1.34, 0.0, -1.49, -2.16, -0.96, 0.0, 2.19, 3.04, 3.11, 1.55, 0.0, 0.0, 1.6, 2.35, 0.79, 0.76, 0.0, 0.0, 0.7, 1.41, 1.27, 2.0, 1.6, 1.0, 2.86, 5.46, 5.09, 3.49, 3.45, 4.0, 3.49, 3.49, -13.48, -13.48, -13.48, -13.48, -13.48, -13.3, -13.3, -13.01, -12.65, -12.09, -11.52, -11.44, -11.16, -10.59, -10.59, -9.66, -9.66, -9.59, -8.65, -7.18, -7.01, -7.55, -7.85, -7.73, -7.36, -6.97, -5.63, -5.04, -4.6, -4.12, -3.32, -1.65, 0.0, 0.0, 0.65, 0.71, 0.0, 0.0, -0.59, -0.55, -0.59, -0.59, -0.59, 0.0, 0.55, 1.08, 2.23, 1.8, 1.6, 1.6, 2.23, 2.48, 3.48, 4.8, 2.8, 3.22, 5.37, 3.79, 3.07, 2.32, 2.16, 1.19, 1.08, 0.0, 0.6, 1.79, 2.6, 2.24, 1.6, 1.63, 2.39, 3.78, 4.67, 3.22, 0.77, -2.22, -5.38, -6.95, -3.06, -0.73, 0.0, 0.0, 0.0, 0.0, 0.0, 0.66, 2.0, 2.73, 1.33, 1.0, 2.23, 3.14, 3.48, 2.53, 2.68, 3.07, 3.14, 3.14, -13.48, -13.48, -13.48, -13.48, -13.3, -13.3, -12.93, -12.93, -12.65, -12.45, -11.52, -11.23, -11.16, -10.59, -10.59, -10.01, -9.37, -9.66, -9.3, -9.9, -10.12, -9.5, -9.5, -8.87, -8.24, -7.33, -5.69, -5.06, -4.63, -3.78, -2.75, -1.08, 0.0, 0.0, 0.61, 0.53, 0.65, 0.0, 0.0, 0.0, 0.0, 0.0, 0.0, 0.0, 0.0, 1.19, 1.27, 1.27, 1.13, 1.6, 1.6, 2.84, 3.72, 5.2, 5.4, 2.86, 4.84, 4.75, 4.19, 2.4, 1.41, 1.27, 0.0, 0.0, 1.79, 3.04, 2.6, 4.02, 4.8, 5.82, 6.95, 7.01, 4.81, 0.78, -2.32, -6.17, -11.42, -11.5, -8.65, -5.49, -2.23, 0.0, 0.73, 1.36, 0.76, 1.33, 2.51, 4.73, 5.36, 2.53, 1.9, 1.88, 1.84, 2.15, 2.15, 2.5, 2.53, 2.53, -13.48, -13.48, -13.3, -13.3, -12.93, -12.93, -12.93, -12.93, -12.65, -12.45, -11.52, -11.23, -11.16, -10.59, -10.59, -10.01, -9.37, -9.59, -10.59, -10.69, -10.12, -9.19, -9.17, -8.87, -8.23, -7.19, -5.86, -4.57, -3.61, -2.83, -1.76, -0.61, 0.0, 0.57, 0.63, 0.55, 0.0, 0.0, 0.0, 0.0, 0.0, 0.0, 0.0, 0.0, 0.0, 0.57, 1.08, 1.13, 1.6, 1.6, 2.53, 3.82, 4.34, 4.77, 5.2, 5.4, 4.93, 6.64, 5.69, 3.22, 0.6, 0.0, 0.63, 1.34, 3.13, 4.02, 4.38, 3.04, 4.02, 5.36, 6.4, 6.4, 5.04, 0.7, -6.32, -9.49, -12.59, -13.99, -12.79, -9.7, -5.3, -1.32, 0.0, 2.26, 2.35, 2.11, 3.48, 4.09, 4.11, 4.74, 1.84, 1.2, 1.2, 1.61, 1.9, 2.21, 2.15, 2.15, -12.93, -12.93, -12.93, -12.93, -12.93, -12.93, -12.93, -12.93, -12.73, -12.09, -11.52, -11.23, -10.88, -10.59, -10.23, -10.01, -9.66, -9.66, -10.06, -10.4, -9.21, -8.24, -7.61, -7.61, -7.6, -6.92, -6.27, -5.17, -4.05, -2.77, -1.69, -0.56, 0.0, 0.0, 0.0, 0.0, 0.0, 0.0, 0.0, 0.0, 0.0, 0.0, 0.0, 0.0, 0.0, 0.0, 0.0, 0.0, 0.0, 1.4, 2.53, 3.82, 4.24, 4.34, 4.77, 5.2, 3.51, 5.34, 6.32, 4.81, 1.58, 0.32, 0.89, 2.12, 3.95, 4.47, 4.02, 3.04, 2.12, 1.6, 0.89, 0.63, 1.6, -0.0, -4.02, -5.64, -8.67, -11.06, -12.13, -11.57, -8.4, -4.43, -1.35, 0.0, 0.72, 1.35, 2.79, 2.51, 2.0, 3.0, 2.66, 1.4, 1.2, 1.0, 1.9, 1.88, 1.13, 1.13, -13.2, -13.2, -12.93, -12.93, -12.93, -12.93, -12.37, -12.37, -12.37, -12.37, -11.8, -11.23, -10.88, -10.3, -10.01, -10.01, -10.01, -10.01, -9.72, -9.8, -8.87, -7.96, -6.96, -6.97, -6.96, -6.94, -6.5, -5.8, -4.68, -3.53, -2.25, -1.75, -0.57, -0.54, 0.0, 0.0, 0.0, 0.0, 0.0, 0.0, 0.0, 0.0, 0.0, 0.0, 0.0, 0.0, 0.0, 0.0, 1.4, 1.4, 2.53, 2.84, 3.82, 3.82, 4.34, 4.47, 2.24, 2.68, 3.6, 5.24, 3.16, 0.95, 0.89, 2.54, 3.51, 4.47, 4.02, 5.36, 2.68, 1.2, -0.45, -2.6, -0.4, 0.63, 1.58, 0.0, -1.9, -5.4, -8.8, -10.38, -9.45, -6.8, -4.11, -2.44, -1.41, 0.0, 0.66, 1.27, 1.84, 3.79, 3.79, 2.48, 2.15, 1.2, 1.2, 1.16, 0.59, 0.59, -13.2, -13.2, -12.93, -12.93, -12.93, -12.56, -12.37, -12.0, -12.0, -11.8, -11.8, -11.8, -11.23, -10.65, -10.59, -10.01, -10.01, -9.72, -9.46, -9.48, -8.87, -8.24, -7.6, -6.96, -6.29, -6.53, -6.27, -5.83, -5.17, -4.02, -3.39, -2.25, -1.73, -1.18, -1.12, -0.57, -0.57, -0.54, -0.58, -0.56, -0.57, -0.53, 0.0, -0.57, -0.59, -0.51, -0.51, 0.0, 0.51, 1.13, 1.84, 2.23, 2.53, 3.2, 3.39, 4.02, 3.58, 1.79, 1.34, 1.49, 2.0, 1.6, 1.34, 2.12, 3.95, 4.02, 4.02, 4.47, 3.58, 0.0, -2.21, -3.9, -1.07, 0.73, 2.97, 4.6, 4.96, 1.55, -3.22, -7.98, -9.68, -8.4, -6.9, -5.36, -3.79, -1.33, 0.0, 1.33, 2.86, 4.52, 6.07, 5.69, 4.02, 2.53, 1.16, 1.16, 0.61, 0.61, -12.82, -12.82, -12.82, -12.56, -12.37, -12.37, -12.37, -12.27, -11.72, -11.72, -11.44, -11.44, -11.23, -10.65, -10.3, -9.72, -9.72, -9.46, -9.46, -9.17, -8.58, -8.24, -8.24, -7.33, -6.94, -6.53, -5.86, -5.86, -5.2, -4.54, -3.39, -2.9, -2.39, -2.28, -1.75, -1.18, -1.12, -1.2, -1.14, -0.58, -0.59, -1.12, -0.58, -1.07, -1.08, -0.57, 0.0, 0.0, 0.57, 0.57, 0.59, 1.16, 1.6, 2.21, 2.8, 3.39, 2.8, 2.68, 2.24, 0.0, 0.0, 1.14, 1.6, 2.24, 3.13, 3.58, 3.58, 3.58, 3.13, 0.89, -0.6, -2.4, -0.77, 0.74, 3.96, 7.69, 8.31, 4.66, 0.0, -5.16, -9.58, -9.45, -8.4, -6.32, -4.12, -1.49, 0.0, 2.23, 3.6, 4.0, 3.49, 6.32, 4.87, 3.26, 2.0, 1.33, 1.33, 1.33, -12.82, -12.82, -12.65, -12.65, -12.65, -12.27, -12.27, -12.27, -11.72, -11.72, -11.72, -11.23, -11.23, -10.94, -10.65, -10.06, -9.72, -9.46, -9.46, -8.87, -8.87, -8.24, -8.24, -7.59, -6.94, -6.53, -5.86, -5.2, -4.72, -4.05, -3.91, -3.45, -2.8, -2.42, -2.3, -1.75, -1.67, -1.67, -1.2, -1.14, -1.16, -1.73, -1.1, -1.23, -1.05, -0.59, 0.0, 0.0, 0.0, 0.0, 0.0, 0.61, 0.53, 0.71, 0.95, 1.2, 2.4, 2.68, 1.2, -0.0, 0.0, 0.73, 1.99, 2.53, 5.2, 3.04, 2.68, 1.79, 0.89, 0.0, -0.71, -2.3, -2.51, 0.0, 3.88, 6.71, 5.52, 2.11, 0.0, -3.58, -7.56, -9.83, -8.93, -7.33, -5.31, -2.79, 0.0, 3.07, 4.0, 3.49, 2.51, 2.11, 4.0, 2.99, 2.54, 1.94, 1.8, 1.8, -12.65, -12.65, -12.65, -12.27, -12.27, -12.27, -12.09, -11.72, -11.72, -11.16, -11.16, -11.16, -11.23, -10.94, -10.36, -10.3, -9.72, -9.46, -9.46, -8.87, -8.56, -8.24, -7.96, -7.87, -7.59, -6.94, -6.53, -5.86, -5.2, -4.76, -3.91, -3.45, -2.8, -2.8, -2.3, -2.3, -1.75, -1.67, -1.67, -1.69, -1.69, -1.61, -1.1, -1.2, -0.57, -0.57, 0.0, 0.0, 0.0, 0.0, 0.0, 0.0, 0.0, 0.0, 0.0, 0.63, 1.58, 2.68, 1.2, 0.63, 0.0, 0.0, 0.73, 2.41, 2.86, 4.8, 2.24, 0.89, -0.63, -0.95, -0.71, -0.79, -2.29, -2.53, -0.7, 0.0, 0.0, 0.0, -0.6, -3.13, -5.81, -7.43, -7.58, -7.85, -6.32, -2.53, 0.6, 2.6, 2.53, 2.0, 1.27, 0.66, 2.31, 2.83, 2.75, 2.72, 2.66, 2.66, -12.27, -12.27, -12.27, -12.27, -12.27, -12.09, -11.72, -11.72, -11.72, -11.35, -11.16, -11.16, -10.88, -11.23, -10.69, -10.36, -10.06, -9.46, -9.17, -8.56, -8.56, -8.24, -7.96, -7.96, -7.6, -6.96, -6.56, -5.89, -5.2, -4.54, -4.08, -3.42, -2.93, -2.8, -2.28, -2.3, -2.3, -1.75, -1.67, -1.78, -1.69, -1.71, -1.76, -0.76, 0.0, 0.0, 0.0, -1.12, -1.14, -0.54, -0.57, -0.59, -0.61, -0.54, -0.6, 0.0, 1.79, 2.24, 0.89, 0.45, 0.0, 0.0, 0.0, 1.49, 1.9, 2.23, 3.2, 1.7, -0.89, -1.34, -0.6, -0.73, -0.74, -3.9, -7.69, -7.64, -4.29, -1.8, -0.61, -1.58, -3.58, -5.81, -6.04, -5.37, -3.48, -0.65, 0.95, 1.26, 0.61, 0.66, 0.59, 1.33, 1.35, 2.75, 2.69, 2.75, 2.54, 2.54, -12.27, -12.27, -12.27, -12.27, -12.09, -11.72, -11.72, -11.72, -11.35, -11.16, -11.16, -11.16, -11.16, -10.88, -10.65, -10.36, -9.77, -9.77, -9.17, -8.56, -8.56, -8.24, -8.24, -7.89, -7.61, -6.96, -6.7, -6.31, -5.67, -5.23, -4.57, -4.08, -3.42, -3.27, -2.93, -2.8, -2.8, -2.3, -2.3, -2.19, -2.21, -2.23, -1.73, -1.8, -1.16, 0.0, -0.72, -1.67, -1.73, -1.76, -1.8, -1.6, -1.16, -1.61, -0.8, 0.0, 1.2, 1.2, 0.89, 0.0, 0.0, 0.0, 0.71, 0.71, 1.24, 1.6, 2.6, 2.97, 0.95, -1.34, -2.12, -1.6, 0.0, -0.74, -6.2, -8.46, -7.18, -3.9, -1.35, 0.0, -0.73, -3.43, -3.64, -3.2, -1.07, 0.67, 1.94, 0.7, 0.0, 0.0, 0.7, 0.7, 1.41, 2.26, 2.06, 2.06, 2.18, 2.18, -12.27, -12.27, -12.27, -12.09, -11.72, -11.72, -11.72, -11.72, -11.35, -11.16, -11.16, -11.16, -10.8, -10.59, -10.65, -10.65, -10.09, -9.77, -9.17, -8.87, -8.56, -8.24, -8.24, -7.61, -7.61, -6.97, -6.71, -6.33, -5.26, -5.23, -5.23, -4.57, -4.08, -3.91, -3.42, -3.45, -3.45, -2.8, -2.83, -2.83, -2.33, -2.37, -2.26, -2.29, -2.36, -2.4, -2.29, -1.84, -1.76, -1.6, -1.84, -2.23, -2.53, -2.15, -1.26, 0.0, 0.6, 1.26, 0.95, 0.0, 0.0, 0.0, 0.8, 0.0, 0.0, 0.0, 0.45, 1.34, 0.8, -0.71, -1.58, -0.95, 0.0, 1.62, -0.75, -5.48, -7.01, -5.52, -2.9, -1.47, -0.71, -0.7, -1.03, 0.0, 1.61, 3.49, 3.42, 2.7, 0.73, 0.0, 0.0, 0.0, 0.0, 0.0, 1.4, 1.4, 1.36, 1.36, -12.27, -12.27, -11.72, -11.72, -11.72, -11.72, -11.72, -11.16, -11.16, -11.16, -11.16, -10.8, -10.8, -10.59, -10.59, -10.3, -9.77, -9.77, -9.48, -9.48, -9.17, -8.87, -8.24, -7.95, -7.33, -6.97, -6.71, -6.34, -5.52, -5.06, -5.26, -5.23, -4.57, -4.57, -4.57, -3.91, -4.12, -3.45, -3.49, -3.32, -2.86, -2.89, -2.92, -2.44, -2.77, -3.42, -2.96, -2.16, -1.76, -1.8, -1.84, -2.23, -2.23, -1.88, -0.71, 0.0, 0.8, 0.8, 0.8, 0.6, 0.63, 0.63, 0.57, 0.0, 0.0, 0.0, 0.0, 0.0, -0.6, -0.76, -0.54, 0.45, 0.0, 1.03, 0.74, -1.57, -5.41, -4.56, -3.33, -2.83, -1.41, 0.0, 1.33, 2.8, 3.39, 3.34, 3.44, 2.9, 1.58, 0.69, 0.0, -0.76, -0.66, -0.64, 0.67, 0.71, 0.71, 0.71, -11.72, -11.72, -11.72, -11.72, -11.72, -11.72, -11.16, -11.16, -11.16, -11.16, -10.8, -10.8, -10.87, -10.51, -10.23, -10.3, -10.06, -10.06, -9.77, -9.77, -9.48, -8.87, -8.24, -7.95, -7.33, -6.98, -6.98, -6.34, -5.98, -5.28, -5.32, -5.29, -5.26, -5.26, -5.26, -4.8, -4.6, -3.94, -4.16, -3.49, -3.52, -3.56, -2.89, -2.92, -2.96, -2.75, -2.75, -2.14, -2.18, -2.2, -2.22, -2.48, -2.23, -1.84, -0.65, 0.0, 0.71, 0.57, 0.8, 1.26, 1.26, 0.95, 1.4, 0.6, 0.0, 0.0, 0.0, -0.63, -1.26, -0.65, 0.0, 1.26, 0.0, -1.41, -1.51, -0.8, -1.49, -1.26, 0.0, 0.0, 0.0, 1.41, 2.06, 2.81, 2.24, 2.22, 1.73, 1.73, 1.51, 0.75, 0.0, -1.45, -2.2, -2.04, -1.36, 0.0, 0.0, 0.0, -11.99, -11.99, -11.72, -11.72, -11.35, -11.16, -11.16, -11.16, -11.16, -11.16, -10.8, -10.8, -10.87, -10.51, -10.23, -10.01, -10.01, -10.06, -9.77, -9.77, -9.48, -9.17, -8.56, -7.95, -7.61, -7.32, -6.98, -6.98, -6.98, -5.7, -5.32, -5.32, -5.06, -5.29, -5.04, -5.04, -4.6, -4.6, -4.16, -3.97, -4.0, -3.35, -3.37, -3.4, -2.92, -2.75, -2.96, -2.29, -2.32, -2.36, -2.4, -2.4, -2.44, -1.58, -0.51, 0.0, 0.0, 0.0, 0.57, 1.26, 2.4, 2.4, 2.8, 2.21, 0.95, 0.63, 0.0, 0.0, -0.95, -0.8, 0.0, 1.0, 0.0, -4.12, -4.71, -1.56, 0.78, 2.31, 2.99, 2.06, 0.71, 0.0, 0.0, 0.0, 0.0, 0.0, 0.0, 0.0, 0.0, 0.0, 0.0, -0.8, -2.06, -2.82, -2.82, -1.36, 0.0, 0.0, -11.62, -11.62, -11.62, -11.35, -11.16, -11.16, -11.16, -11.16, -11.16, -10.8, -10.8, -11.07, -10.87, -10.51, -10.51, -10.01, -10.01, -9.72, -10.06, -9.77, -9.48, -9.17, -8.56, -7.95, -7.33, -7.61, -6.98, -6.98, -6.98, -6.08, -5.7, -5.06, -5.06, -5.06, -5.29, -5.29, -5.29, -4.63, -4.63, -4.42, -4.2, -4.0, -3.56, -3.6, -3.4, -2.75, -2.96, -2.96, -3.0, -2.8, -2.82, -2.82, -2.4, -1.76, -1.13, -0.61, 0.0, 0.0, 0.0, 1.49, 2.12, 2.8, 2.8, 2.8, 2.8, 1.9, 0.63, 0.0, 0.0, -0.4, 0.0, 0.0, 0.0, -2.21, -3.04, -0.77, 3.1, 5.51, 5.41, 2.32, 0.0, -2.12, -2.06, -2.06, -1.42, -1.17, -0.57, 0.0, 0.0, 0.0, -0.73, -0.72, -2.31, -2.82, -1.41, 0.0, 0.66, 0.66, -11.62, -11.62, -11.62, -11.16, -11.16, -11.16, -11.16, -11.16, -10.8, -10.8, -10.8, -10.87, -10.51, -10.51, -10.51, -10.51, -10.01, -10.01, -9.72, -9.46, -9.46, -9.17, -8.56, -8.24, -7.61, -7.61, -6.98, -6.98, -6.34, -6.34, -5.95, -5.7, -5.29, -5.29, -5.06, -5.06, -5.06, -5.06, -4.63, -4.66, -4.66, -4.0, -4.03, -3.6, -2.92, -2.92, -3.4, -3.42, -3.21, -3.45, -3.04, -2.82, -2.4, -1.76, -1.27, -0.61, -0.53, 0.0, 0.0, 1.26, 1.86, 1.86, 1.9, 1.2, 0.6, 1.4, 0.0, 0.0, 0.0, -0.63, 0.0, 0.0, 0.0, 0.79, 0.0, 0.0, 0.77, 3.17, 3.07, 1.41, 0.0, -2.13, -3.53, -3.46, -2.65, -2.1, -1.45, -0.74, -0.73, -0.73, -0.71, -0.61, -0.78, 0.0, 1.26, 3.32, 3.07, 3.07, -11.07, -11.07, -11.07, -11.07, -10.8, -10.8, -10.8, -10.8, -10.8, -10.59, -10.59, -10.51, -10.51, -10.51, -10.3, -9.94, -9.66, -10.01, -9.76, -9.13, -9.13, -8.85, -8.85, -8.24, -7.95, -7.33, -6.97, -6.98, -6.98, -6.34, -6.34, -5.95, -5.7, -5.7, -5.29, -5.06, -5.06, -5.32, -5.08, -4.66, -4.66, -4.44, -4.05, -3.2, -2.96, -2.92, -3.4, -3.4, -3.42, -3.45, -3.47, -2.82, -2.4, -2.44, -1.8, -1.33, -0.61, -0.65, 0.6, 1.26, 1.49, 1.86, 1.9, 0.95, 0.6, 0.0, 0.0, 0.0, 0.0, 0.0, -0.63, 0.0, 0.85, 3.25, 2.31, 0.0, -3.15, -2.95, -2.35, -2.11, -1.4, -0.7, -1.44, -2.8, -2.6, -1.93, -1.44, -1.45, -0.64, -0.69, 0.0, 0.0, 1.24, 2.68, 4.02, 5.16, 5.69, 5.44, -11.34, -11.34, -11.07, -11.07, -10.8, -10.8, -10.8, -10.59, -10.59, -10.59, -10.23, -10.23, -10.3, -9.94, -9.94, -9.94, -9.66, -9.66, -9.42, -9.42, -9.13, -8.85, -8.53, -8.53, -8.24, -7.61, -7.33, -6.97, -6.98, -6.34, -6.34, -6.34, -5.95, -5.7, -5.7, -5.29, -5.06, -5.32, -5.08, -5.08, -4.69, -4.69, -4.46, -3.0, -2.77, -2.92, -4.03, -4.05, -4.08, -3.45, -3.47, -2.82, -2.4, -2.44, -1.8, -1.13, -1.16, -0.65, 0.6, 1.26, 1.26, 1.26, 1.9, 0.6, 0.0, 0.0, 0.0, 0.0, 0.0, 0.0, 0.0, 0.0, 0.0, 2.4, 5.45, 3.96, -1.52, -7.18, -7.77, -6.24, -3.47, -1.33, -0.72, -1.36, -2.0, -1.35, -0.67, 0.0, 0.0, 0.0, 0.0, 1.84, 4.02, 5.36, 4.87, 5.05, 5.36, 5.69, -10.96, -10.96, -10.7, -11.07, -11.07, -10.59, -10.59, -10.59, -10.59, -10.23, -10.23, -10.01, -9.94, -9.94, -9.94, -9.94, -9.66, -9.66, -9.42, -9.42, -9.08, -8.82, -8.53, -8.53, -8.24, -8.24, -7.33, -7.33, -6.97, -6.71, -6.34, -6.34, -5.95, -5.95, -5.7, -5.7, -5.06, -5.32, -5.08, -5.34, -5.09, -4.71, -4.46, -4.75, -3.2, -3.37, -4.69, -4.71, -4.47, -3.85, -3.47, -2.82, -2.84, -2.44, -1.76, -1.8, -1.84, 0.0, 0.6, 0.6, 1.26, 1.26, 1.26, 1.2, 1.2, 0.0, 0.0, 0.0, 0.0, 0.0, 0.63, 0.0, 0.0, 0.0, 4.18, 8.46, 5.41, -1.47, -6.53, -7.15, -4.12, -2.11, -0.7, 0.0, 0.0, 0.0, 0.0, 0.72, 1.35, 1.36, 1.41, 3.14, 4.73, 5.59, 4.46, 4.12, 4.11, 5.36, -10.96, -10.96, -10.79, -10.51, -10.51, -10.23, -10.59, -10.23, -10.23, -10.01, -10.01, -10.01, -9.66, -9.94, -9.94, -9.94, -9.66, -9.42, -9.08, -9.08, -8.82, -8.82, -8.82, -8.53, -7.93, -7.93, -7.93, -7.61, -7.33, -6.97, -6.71, -6.61, -6.34, -5.95, -5.7, -5.7, -5.7, -5.32, -5.08, -5.34, -5.09, -4.71, -4.73, -5.1, -5.38, -4.71, -4.71, -4.75, -4.12, -3.84, -3.47, -3.08, -2.84, -2.44, -2.22, -1.8, -1.6, 0.0, 0.0, 0.8, 0.8, 1.26, 1.9, 1.9, 1.4, 1.6, 0.0, 0.0, 0.0, 1.2, 1.34, 0.63, -0.95, -1.6, 0.0, 5.2, 7.12, 4.6, 0.0, -2.15, -2.15, -1.88, -0.69, 0.0, 0.69, 0.69, 0.7, 0.67, 1.45, 1.45, 1.35, 2.53, 3.07, 3.49, 3.07, 2.3, 1.66, 1.66, -10.41, -10.41, -10.79, -10.51, -10.51, -10.51, -10.23, -10.23, -10.01, -10.01, -10.01, -9.66, -9.66, -9.66, -9.66, -9.66, -9.42, -9.42, -9.08, -9.08, -8.82, -8.5, -8.5, -8.22, -8.22, -7.93, -7.93, -7.61, -7.61, -6.97, -6.71, -6.71, -6.61, -6.34, -5.95, -5.7, -5.7, -5.32, -5.32, -5.08, -5.09, -4.71, -4.46, -5.1, -5.72, -5.09, -4.47, -3.84, -3.49, -3.49, -3.49, -3.22, -2.84, -2.86, -2.22, -2.48, -1.2, 0.0, 0.0, 0.0, 0.57, 0.8, 1.26, 1.2, 1.4, 1.6, 1.6, 0.0, 1.2, 1.79, 1.79, 0.63, -0.95, -2.12, -2.12, -0.76, 1.52, 3.96, 5.4, 3.8, 1.41, 0.69, 1.4, 2.02, 2.15, 0.77, 0.0, 0.0, 0.0, 0.0, 0.0, 0.65, 1.26, 0.57, 0.0, 0.0, 0.0, 0.0, -10.41, -10.41, -10.41, -10.41, -10.51, -10.51, -10.51, -9.66, -9.66, -9.66, -9.66, -9.66, -9.66, -9.66, -9.66, -9.42, -9.42, -9.08, -9.08, -8.82, -8.5, -8.5, -8.5, -8.22, -8.22, -8.22, -7.93, -7.61, -7.61, -7.61, -7.26, -6.71, -6.71, -6.34, -6.34, -5.7, -5.7, -5.72, -5.32, -5.08, -5.09, -4.69, -4.71, -5.1, -5.09, -4.69, -3.83, -3.22, -3.49, -3.22, -3.22, -3.12, -2.86, -2.86, -2.86, -2.86, -1.2, 0.0, 0.0, 0.0, 0.0, 0.57, 0.57, 1.2, 1.4, 1.6, 1.8, 2.84, 1.7, 2.24, 1.2, 0.0, -1.2, -3.04, -5.59, -4.8, -2.2, 0.73, 4.46, 7.11, 8.5, 8.68, 7.29, 5.55, 3.53, 2.11, 0.67, 0.0, -0.7, -1.41, -0.59, -0.57, 0.0, 0.0, 0.0, 0.0, 0.0, 0.0, -10.41, -10.41, -10.41, -10.41, -10.15, -9.94, -9.94, -9.94, -9.66, -9.66, -9.66, -9.66, -9.42, -9.42, -9.42, -9.42, -9.08, -9.08, -9.08, -8.5, -8.5, -8.5, -8.22, -8.22, -8.22, -8.22, -8.22, -7.61, -7.61, -7.61, -7.61, -6.98, -6.98, -6.61, -6.34, -5.7, -5.98, -5.72, -5.32, -5.08, -5.09, -5.09, -4.69, -4.45, -4.71, -4.46, -3.83, -3.42, -3.22, -2.82, -2.84, -3.12, -2.86, -2.86, -2.86, -2.23, -1.0, 0.0, 0.0, 0.0, 0.0, 0.71, 0.71, 0.71, 1.4, 1.6, 1.6, 1.26, 1.58, 1.6, 0.95, 0.0, -0.8, -2.86, -3.84, -3.16, -2.2, 0.0, 2.34, 6.0, 10.05, 11.65, 9.99, 7.11, 5.71, 4.32, 3.46, 0.71, -0.67, -1.27, -2.4, -0.89, -0.89, -0.6, 0.0, 0.0, 0.0, 0.0, -10.41, -10.41, -10.41, -10.41, -10.23, -9.86, -9.59, -9.94, -9.94, -9.42, -9.42, -9.42, -9.42, -9.42, -9.08, -9.08, -9.08, -9.08, -8.82, -8.5, -8.5, -8.5, -8.22, -8.22, -8.22, -8.22, -7.91, -7.61, -7.32, -7.32, -7.32, -6.98, -6.98, -6.98, -6.34, -6.08, -5.98, -5.72, -5.08, -5.08, -5.34, -5.09, -4.69, -4.45, -4.71, -4.05, -3.83, -3.64, -3.42, -3.45, -3.04, -3.08, -2.84, -2.86, -2.86, -1.8, -0.61, -0.61, 0.0, 0.0, 0.0, 0.54, 0.54, 0.54, 0.54, 1.4, 1.6, 0.8, 0.0, 0.8, 0.0, -0.8, -0.8, -1.49, -0.76, 0.0, 0.0, 0.0, 0.74, 4.6, 8.05, 9.55, 7.77, 7.03, 6.32, 5.52, 4.08, 2.11, 0.0, -1.41, -2.68, -1.2, -0.45, 0.0, 0.0, 0.0, 0.0, 0.0, -10.68, -10.68, -10.04, -9.86, -9.86, -9.86, -9.59, -9.37, -9.37, -9.08, -9.08, -9.08, -9.08, -9.08, -9.08, -9.08, -9.08, -8.82, -8.5, -8.5, -8.5, -8.22, -8.22, -8.22, -8.22, -7.9, -7.6, -7.6, -7.32, -7.32, -7.32, -6.98, -6.98, -6.98, -6.34, -6.08, -5.98, -5.72, -5.08, -5.08, -5.09, -5.09, -4.69, -4.69, -4.71, -4.05, -3.83, -3.64, -3.42, -3.42, -3.45, -2.8, -2.82, -2.82, -2.2, -1.76, -1.27, -0.59, -0.61, 0.0, 0.0, 0.0, 0.54, 0.65, 0.54, 0.0, 0.0, 0.0, 0.0, 0.0, -0.57, -0.8, -0.6, -0.71, 0.0, 0.0, 0.0, 0.0, 1.55, 3.79, 6.05, 6.47, 7.11, 8.56, 7.84, 5.6, 2.83, 1.27, 1.34, -1.2, -0.54, -0.0, -0.0, 0.0, 0.0, 0.0, 0.0, 0.0, -10.3, -10.3, -10.3, -10.13, -9.86, -9.86, -9.86, -9.37, -9.37, -9.37, -9.08, -9.08, -9.08, -9.08, -9.08, -8.82, -8.82, -8.82, -8.5, -8.5, -8.5, -8.22, -8.22, -7.9, -7.9, -7.9, -7.6, -7.6, -7.32, -7.32, -7.32, -6.98, -6.98, -6.7, -6.34, -6.35, -5.98, -5.72, -5.08, -5.08, -5.09, -4.69, -4.69, -4.69, -4.45, -4.05, -3.83, -4.08, -3.64, -3.42, -3.42, -3.21, -3.0, -2.8, -2.18, -1.73, -1.23, -1.11, -0.59, 0.0, 0.0, 0.0, 0.0, 0.65, 0.65, 0.0, 0.0, 1.6, 1.6, 1.0, 0.8, 0.0, 0.0, 0.0, 0.0, 0.0, 0.0, 0.81, 2.29, 3.9, 3.91, 4.75, 8.03, 10.73, 9.16, 5.54, 2.11, 1.49, 0.61, -0.59, -0.61, -0.0, -0.0, 0.0, -0.63, -0.6, -0.6, -0.6, -10.3, -10.3, -10.13, -10.13, -10.13, -9.5, -9.86, -9.66, -9.37, -9.37, -9.08, -9.08, -8.82, -8.82, -8.82, -8.82, -8.82, -8.5, -8.5, -8.5, -8.22, -7.9, -7.9, -7.9, -7.9, -7.6, -7.6, -7.6, -7.32, -7.32, -6.98, -6.98, -6.7, -6.98, -6.35, -6.35, -5.72, -5.72, -5.08, -5.08, -5.34, -4.69, -4.69, -4.69, -4.45, -4.05, -4.05, -3.83, -4.08, -3.64, -3.42, -3.42, -3.42, -2.77, -2.16, -1.7, -1.73, -1.23, -0.59, -0.51, 0.0, 0.0, 0.0, 0.0, 0.53, 0.0, 0.8, 1.0, 1.49, 1.49, 0.71, 0.57, 0.0, 0.0, 0.0, 0.0, 0.0, 0.76, 2.3, 3.22, 3.0, 3.8, 7.73, 9.6, 7.6, 4.8, 1.26, 2.6, 2.4, 1.24, 0.71, -0.0, -0.0, -0.89, -0.63, 0.0, 0.0, 0.0, -10.3, -10.13, -10.13, -10.13, -9.76, -9.5, -9.5, -9.3, -9.3, -9.37, -9.37, -8.82, -8.82, -8.82, -8.82, -8.82, -8.5, -8.5, -8.5, -8.22, -8.22, -7.9, -7.9, -7.9, -7.6, -7.6, -7.6, -7.6, -7.6, -7.32, -6.98, -6.98, -6.98, -6.35, -6.35, -6.35, -5.72, -5.72, -5.46, -5.08, -5.08, -5.09, -4.69, -4.69, -4.45, -4.46, -4.05, -4.05, -4.08, -4.08, -3.64, -3.42, -3.42, -3.0, -2.32, -2.36, -1.88, -1.08, -1.11, -0.59, -0.51, 0.0, 0.0, 0.0, 0.0, 0.0, 0.6, 0.8, 0.8, 0.71, 0.85, 1.49, 0.0, 0.0, 0.0, 0.0, 0.0, 0.71, 1.49, 2.4, 2.47, 3.11, 4.95, 5.52, 4.65, 0.71, 1.26, 2.17, 2.6, 2.68, 2.68, 1.79, 0.0, 0.0, 0.45, 2.17, 2.17, 2.17, -10.13, -9.86, -10.13, -9.76, -9.76, -9.76, -9.5, -9.3, -9.3, -9.3, -9.02, -8.78, -8.5, -8.82, -8.82, -8.5, -8.5, -8.5, -8.22, -8.22, -8.22, -8.22, -7.9, -7.9, -7.6, -7.6, -7.6, -7.6, -7.6, -7.6, -6.98, -6.98, -6.98, -6.35, -6.35, -6.08, -5.72, -5.72, -5.46, -5.08, -5.08, -5.08, -4.69, -4.69, -4.45, -4.71, -4.46, -4.05, -3.83, -4.08, -4.08, -3.42, -3.42, -2.77, -2.32, -2.16, -1.7, -1.73, -1.23, -1.11, -0.59, 0.0, 0.0, 0.0, 0.0, 0.65, 0.0, 0.0, 0.85, 0.99, 0.76, 0.85, 0.65, 0.0, 0.0, 0.0, 0.0, 0.0, 0.87, 0.88, 1.7, 2.47, 3.11, 1.58, 0.0, 0.0, 0.57, 1.7, 1.2, 1.7, 2.68, 2.68, 1.34, 1.34, 2.4, 3.74, 3.74, 3.74, -9.86, -9.86, -9.86, -9.5, -9.76, -9.58, -9.3, -9.3, -9.3, -9.3, -9.3, -9.02, -8.78, -8.5, -8.5, -8.5, -8.5, -8.5, -8.22, -8.22, -8.22, -8.22, -7.9, -7.6, -7.6, -7.6, -7.6, -7.6, -7.6, -6.98, -6.98, -6.98, -6.35, -6.35, -6.08, -6.0, -6.0, -5.72, -5.72, -5.46, -5.08, -5.08, -5.08, -4.69, -4.69, -4.71, -4.46, -4.46, -4.05, -4.08, -4.08, -3.64, -3.42, -2.77, -3.0, -2.32, -2.36, -1.88, -1.08, -1.11, -0.57, -0.59, 0.0, 0.0, 0.0, 0.0, 0.0, 0.0, 0.0, 0.0, 0.0, 0.0, 0.0, 0.0, 0.0, 0.0, 0.0, 0.0, 0.0, 0.0, 0.88, 1.55, 1.6, 0.0, 0.0, 0.0, 0.0, 0.0, 0.0, -0.0, 1.9, 2.6, 2.17, 2.4, 3.45, 5.05, 5.05, 5.05, -9.86, -9.86, -9.86, -9.5, -9.5, -9.3, -9.3, -9.3, -9.3, -9.3, -9.3, -9.3, -8.78, -8.78, -8.5, -8.5, -8.22, -8.22, -8.22, -8.22, -8.22, -8.22, -7.9, -7.6, -7.6, -7.6, -7.6, -7.6, -7.6, -6.98, -6.98, -6.69, -6.35, -6.35, -6.08, -6.0, -5.72, -5.72, -5.72, -5.46, -5.08, -5.08, -5.08, -5.34, -4.69, -4.45, -4.71, -4.46, -4.46, -4.05, -4.08, -4.08, -3.42, -2.77, -3.0, -2.32, -2.36, -1.7, -1.73, -1.23, -1.11, -0.57, -0.59, 0.0, 0.0, 0.0, 0.0, 0.0, 0.0, 0.0, -0.85, -1.74, -0.87, 0.0, 0.95, 0.0, 0.0, -0.85, -0.99, -0.99, 0.0, 0.87, 1.58, 1.55, 2.09, 0.72, -0.54, -1.34, -0.89, -0.0, 1.9, 2.23, 2.4, 3.07, 4.46, 5.05, 5.05, 5.05, -9.86, -9.86, -9.86, -9.5, -9.3, -9.3, -9.3, -9.3, -9.3, -9.3, -9.3, -9.3, -9.3, -8.78, -8.78, -8.5, -8.22, -8.22, -8.22, -8.22, -8.22, -7.9, -7.9, -7.6, -7.6, -7.6, -7.6, -7.6, -6.98, -6.98, -6.98, -6.35, -6.35, -6.08, -6.35, -6.0, -5.72, -5.72, -5.72, -5.72, -5.46, -5.08, -5.08, -5.34, -5.09, -4.69, -4.45, -4.71, -4.46, -4.05, -3.83, -4.08, -3.42, -3.42, -3.0, -2.8, -2.16, -2.18, -1.73, -1.19, -1.23, -0.57, -0.59, -0.59, 0.0, 0.0, 0.0, 0.0, 0.0, -0.6, -0.6, -1.74, -0.99, 0.0, 0.71, 0.8, 0.0, -1.9, -2.6, -2.21, -1.9, 0.0, 2.11, 3.8, 2.99, 1.16, -1.34, -2.12, -0.63, 0.57, 2.84, 3.45, 2.86, 4.46, 5.05, 4.66, 4.66, 4.66, -10.13, -10.13, -9.5, -9.5, -9.3, -9.3, -9.3, -9.3, -9.3, -9.3, -9.3, -9.3, -9.3, -9.08, -8.78, -8.78, -8.22, -8.22, -8.22, -8.22, -7.9, -7.9, -7.9, -7.6, -7.6, -7.6, -7.6, -6.98, -6.98, -6.98, -6.69, -6.35, -6.35, -6.08, -6.0, -6.0, -6.0, -5.72, -5.72, -5.72, -5.46, -5.46, -5.08, -5.34, -5.09, -5.09, -4.69, -4.45, -4.71, -4.05, -4.05, -3.83, -3.42, -3.42, -2.77, -2.8, -2.32, -2.36, -1.7, -1.73, -1.19, -1.23, -0.57, -0.59, -0.59, -0.61, -0.61, -0.61, -0.61, -0.71, -1.26, -0.6, -0.85, 0.0, 0.0, 0.0, 0.0, -2.21, -2.98, -2.97, -2.54, -0.6, 0.0, 1.49, 1.27, 0.0, -2.24, -1.86, 0.57, 1.88, 3.79, 5.69, 6.64, 5.43, 5.05, 6.0, 6.0, 6.0, -9.76, -9.76, -9.5, -9.5, -9.3, -9.3, -9.3, -8.94, -8.94, -8.94, -8.94, -8.94, -9.3, -9.08, -8.78, -8.78, -8.78, -8.22, -8.22, -8.22, -7.9, -7.9, -7.6, -7.6, -7.6, -7.6, -6.98, -6.98, -6.98, -6.69, -6.35, -6.35, -6.08, -6.08, -6.0, -6.0, -6.0, -5.72, -5.72, -5.46, -5.46, -5.08, -5.08, -5.34, -5.09, -5.09, -4.69, -4.45, -4.45, -4.28, -4.05, -3.4, -3.4, -3.42, -2.77, -3.0, -2.32, -2.16, -1.84, -1.7, -1.19, -1.19, -1.23, -1.11, -1.27, -1.13, -1.33, -1.13, -1.13, -1.24, -1.26, -1.26, -0.6, 0.0, 0.0, 0.0, -0.99, -1.74, -2.98, -3.47, -1.34, -1.2, -0.57, 0.0, 0.0, 0.0, -1.16, -1.2, 1.26, 2.21, 4.43, 6.0, 6.8, 5.86, 5.6, 6.94, 6.94, 6.94, -9.76, -9.76, -9.5, -9.3, -9.3, -9.3, -9.3, -8.94, -8.94, -8.94, -8.73, -8.73, -8.73, -8.73, -8.73, -8.78, -8.78, -8.78, -8.22, -8.22, -7.9, -7.6, -7.6, -7.6, -7.6, -7.3, -6.98, -6.98, -6.98, -6.35, -6.35, -6.35, -6.08, -6.08, -5.72, -5.72, -5.72, -5.72, -5.72, -5.46, -5.46, -5.08, -5.34, -5.34, -5.09, -5.09, -4.69, -4.45, -4.45, -4.03, -4.03, -4.05, -3.4, -3.4, -2.96, -2.77, -2.49, -2.32, -1.67, -1.84, -1.7, -1.73, -1.19, -1.08, -1.23, -1.11, -1.27, -1.8, -1.8, -1.49, -1.24, -1.49, -1.2, -1.2, -1.74, -1.98, -1.98, -1.74, -2.53, -2.4, -1.2, -1.2, -1.58, -1.49, -0.76, 0.0, 0.0, 0.0, 0.65, 1.79, 2.5, 4.12, 5.2, 6.28, 6.79, 6.79, 6.79, 6.79, -9.76, -9.76, -9.3, -9.3, -9.3, -9.3, -8.94, -8.94, -8.73, -8.73, -8.73, -8.73, -8.73, -8.73, -8.73, -8.45, -8.45, -8.45, -8.19, -7.9, -7.9, -7.6, -7.6, -7.6, -7.3, -6.98, -6.98, -6.98, -6.69, -6.35, -6.35, -6.35, -6.08, -6.08, -5.72, -5.72, -5.72, -5.72, -5.72, -5.46, -5.08, -5.08, -5.34, -5.09, -5.09, -4.69, -4.69, -4.45, -4.45, -4.03, -4.03, -3.81, -3.6, -3.4, -2.92, -2.96, -2.29, -2.29, -2.32, -2.32, -2.36, -1.7, -1.73, -1.73, -1.19, -1.76, -1.76, -1.58, -2.22, -2.22, -2.23, -1.86, -1.7, -1.7, -1.7, -2.84, -2.53, -1.74, -1.98, -1.74, -1.2, -2.21, -2.41, -2.2, -1.52, -0.73, 0.0, 0.69, 1.32, 1.41, 1.24, 2.17, 4.3, 6.98, 7.89, 7.21, 7.21, 7.21, -9.58, -9.58, -9.58, -9.3, -9.3, -9.3, -8.94, -8.94, -8.73, -8.73, -8.73, -8.73, -8.73, -8.73, -8.73, -8.45, -8.45, -8.45, -8.45, -8.19, -7.9, -7.9, -7.6, -7.6, -7.3, -6.98, -6.98, -6.98, -6.69, -6.35, -6.35, -6.35, -6.08, -5.72, -5.72, -5.72, -5.72, -5.72, -5.72, -5.32, -5.08, -5.08, -5.34, -5.09, -4.69, -4.69, -4.69, -4.45, -4.03, -4.03, -4.03, -4.03, -3.37, -3.6, -2.92, -2.75, -2.96, -2.29, -2.29, -2.29, -2.32, -2.36, -1.7, -1.73, -1.73, -1.73, -1.73, -1.76, -2.44, -2.44, -2.22, -1.86, -2.12, -3.82, -1.7, -1.26, -2.53, -1.8, -1.8, -1.8, -0.99, -2.23, -2.53, -2.4, -2.23, -0.76, 0.0, 1.52, 2.06, 2.06, 1.36, 1.33, 3.53, 6.71, 7.57, 7.01, 7.01, 7.01, -9.58, -9.58, -9.58, -9.3, -8.94, -8.94, -8.94, -8.73, -8.73, -8.73, -8.73, -8.73, -8.73, -8.73, -8.73, -8.45, -8.45, -8.19, -8.19, -8.19, -8.19, -7.9, -7.9, -7.6, -7.3, -6.98, -6.98, -6.69, -6.69, -6.35, -6.35, -6.08, -6.08, -5.72, -5.72, -5.72, -5.72, -5.72, -5.72, -5.08, -5.08, -5.08, -5.34, -4.69, -4.69, -4.69, -4.45, -4.03, -4.03, -4.03, -4.03, -4.03, -3.37, -3.6, -3.4, -2.92, -2.75, -2.75, -2.26, -2.44, -2.29, -2.16, -1.7, -1.7, -1.7, -1.7, -1.88, -2.2, -2.2, -2.2, -2.44, -2.86, -3.14, -3.35, -1.7, -1.26, -2.41, -1.8, -1.8, -1.8, -2.0, -2.68, -3.35, -2.88, -2.44, -0.73, 0.77, 2.28, 3.07, 3.16, 3.11, 3.09, 3.48, 5.32, 6.26, 6.21, 6.21, 6.21, -9.58, -9.58, -9.58, -9.3, -8.94, -8.94, -8.94, -8.73, -8.73, -8.73, -8.73, -8.73, -8.73, -8.73, -8.73, -8.45, -8.45, -8.19, -8.19, -8.19, -8.19, -7.9, -7.9, -7.6, -7.3, -6.98, -6.98, -6.69, -6.69, -6.35, -6.35, -6.08, -6.08, -5.72, -5.72, -5.72, -5.72, -5.72, -5.72, -5.08, -5.08, -5.08, -5.34, -4.69, -4.69, -4.69, -4.45, -4.03, -4.03, -4.03, -4.03, -4.03, -3.37, -3.6, -3.4, -2.92, -2.75, -2.75, -2.26, -2.44, -2.29, -2.16, -1.7, -1.7, -1.7, -1.7, -1.88, -2.2, -2.2, -2.2, -2.44, -2.86, -3.14, -3.35, -1.7, -1.26, -2.68, -1.8, -1.8, -1.8, -2.0, -2.53, -3.22, -2.88, -2.26, -0.78, 0.0, 2.28, 3.11, 3.96, 4.65, 4.68, 4.56, 3.74, 4.02, 4.92, 4.92, 4.92]}]